GEFSMA_prec_meanprecacc_132.txt.gz
Total_Precipitation_Accumulation
1.48 1.46 1.41 1.48 1.44 1.60 1.79 2.06 2.01 2.25 2.24 1.98 1.68 1.49 1.43 1.34 1.22 1.38 1.60 1.73 1.61 1.64 2.26 2.63 2.55 2.33 2.00 1.65 1.43 1.35 1.25 1.07 0.90 0.68 0.60 0.62 0.63 0.67 0.57 0.44 0.37 0.30 0.24
2.05 1.97 1.78 1.76 1.65 1.72 1.98 2.23 2.26 2.62 2.47 2.33 1.89 1.76 1.60 1.43 1.37 1.50 1.65 1.86 1.85 1.86 2.14 2.55 2.77 2.69 2.39 1.96 1.61 1.40 1.33 1.26 1.13 0.83 0.67 0.64 0.69 0.72 0.67 0.57 0.46 0.36 0.27
2.27 2.14 1.99 1.91 2.02 2.15 2.28 2.27 2.37 2.65 2.41 2.31 2.07 1.93 1.74 1.54 1.42 1.56 1.72 1.90 1.79 1.80 2.05 2.35 2.67 2.64 2.49 2.25 1.89 1.66 1.50 1.38 1.32 1.06 0.79 0.67 0.66 0.69 0.68 0.65 0.54 0.40 0.27
2.32 2.36 2.13 1.97 2.23 2.37 2.46 2.53 2.53 2.57 2.51 2.44 2.25 1.93 1.75 1.64 1.45 1.51 1.56 1.65 1.70 1.42 1.69 2.21 2.32 2.22 2.28 2.38 2.35 2.27 2.03 1.71 1.54 1.27 0.97 0.80 0.74 0.73 0.70 0.68 0.59 0.42 0.26
2.29 2.53 2.30 2.28 2.46 2.62 2.52 2.35 2.63 2.72 2.58 2.52 2.25 2.06 1.67 1.50 1.44 1.40 1.40 1.40 1.50 1.46 1.40 1.60 2.01 1.94 2.13 2.44 2.61 2.73 2.63 2.30 1.94 1.63 1.32 1.09 1.00 0.88 0.75 0.69 0.62 0.44 0.28
2.28 2.53 2.32 2.38 2.57 2.69 2.70 2.68 2.74 2.73 2.58 2.60 2.32 2.05 1.71 1.38 1.32 1.26 1.18 1.25 1.27 1.13 1.15 1.24 1.48 1.38 1.58 1.91 2.26 2.61 2.86 2.90 2.54 2.06 1.82 1.64 1.49 1.23 0.91 0.71 0.59 0.49 0.37
2.22 2.47 2.21 2.50 2.65 2.63 2.70 2.72 2.85 2.71 2.54 2.73 2.57 2.05 1.58 1.30 1.13 0.99 1.00 1.06 1.01 1.07 1.20 1.38 1.54 1.56 1.42 1.48 1.66 2.03 2.59 3.06 3.01 2.59 2.39 2.26 2.08 1.72 1.18 0.87 0.62 0.48 0.43
2.12 2.28 2.54 2.58 2.66 2.66 2.68 2.65 2.66 2.45 2.27 2.62 2.60 2.35 1.76 1.38 1.07 0.90 1.01 0.95 0.98 1.16 1.17 1.22 1.43 1.64 1.54 1.54 1.45 1.44 2.09 2.83 3.14 3.07 3.02 2.92 2.67 2.07 1.47 1.09 0.74 0.54 0.48
2.22 2.35 2.52 2.60 2.52 2.44 2.46 2.56 2.47 2.31 2.14 2.28 2.54 2.51 1.99 1.49 1.15 0.95 0.97 1.00 1.21 1.28 1.15 1.10 1.09 1.12 1.20 1.47 1.72 1.56 1.66 1.92 2.41 3.08 3.44 3.49 3.04 2.16 1.56 1.28 1.05 0.74 0.55
1.98 2.09 2.17 2.32 2.37 2.36 2.32 2.30 2.27 2.27 2.17 2.04 2.29 2.36 2.20 1.90 1.61 1.13 0.91 0.96 1.18 1.24 1.16 1.04 1.02 1.08 1.16 1.39 1.65 1.51 1.35 1.24 1.38 2.08 2.79 2.97 2.68 2.01 1.55 1.41 1.41 1.16 0.77
1.80 1.81 1.92 2.10 2.16 2.08 2.07 2.21 2.37 2.33 2.16 1.99 2.09 2.20 2.33 2.25 1.93 1.55 1.11 1.03 1.05 1.00 1.09 1.07 1.03 1.08 1.20 1.41 1.54 1.33 1.34 1.16 1.03 1.23 1.68 2.04 2.12 1.85 1.57 1.57 1.74 1.70 1.33
1.74 1.68 1.71 1.82 1.90 1.88 1.86 1.90 2.00 2.03 2.00 2.07 2.09 2.10 2.21 2.19 2.07 1.94 1.51 1.27 1.13 0.87 0.92 0.98 1.03 1.06 1.14 1.26 1.17 1.19 1.27 1.10 0.97 0.93 1.08 1.32 1.55 1.61 1.53 1.63 1.86 1.93 1.82
1.68 1.65 1.59 1.54 1.55 1.58 1.67 1.82 1.84 1.84 1.92 2.02 2.02 2.06 2.00 1.94 2.01 2.00 1.80 1.50 1.30 0.98 0.98 0.92 0.94 1.00 0.98 1.16 1.21 1.29 1.18 0.99 0.88 0.85 0.88 0.97 1.11 1.24 1.34 1.45 1.70 1.91 2.01
1.63 1.52 1.39 1.34 1.33 1.36 1.44 1.61 1.77 1.79 1.86 1.91 1.87 1.91 1.81 1.74 1.87 1.85 1.80 1.79 1.60 1.40 1.34 1.16 0.94 0.92 0.97 1.03 1.12 1.20 1.07 1.00 0.84 0.73 0.71 0.76 0.85 0.94 1.05 1.20 1.36 1.46 1.58
1.34 1.30 1.27 1.26 1.22 1.25 1.29 1.32 1.45 1.47 1.56 1.62 1.69 1.67 1.58 1.58 1.68 1.72 1.81 1.87 1.80 1.64 1.59 1.47 1.14 0.93 0.95 1.03 1.22 1.10 0.98 0.88 0.80 0.72 0.62 0.62 0.65 0.73 0.81 0.89 1.03 1.13 1.16
1.23 1.17 1.18 1.18 1.13 1.11 1.13 1.16 1.20 1.25 1.23 1.29 1.46 1.49 1.48 1.50 1.60 1.64 1.69 1.82 1.92 1.90 1.73 1.56 1.38 1.11 1.09 1.00 1.10 1.10 1.04 0.96 0.81 0.68 0.58 0.55 0.57 0.61 0.69 0.74 0.81 0.91 0.95
1.16 1.17 1.14 1.10 1.01 0.95 0.94 0.97 0.98 1.08 1.09 1.08 1.16 1.19 1.26 1.37 1.51 1.57 1.60 1.66 1.86 2.02 1.89 1.80 1.67 1.54 1.39 1.23 1.08 1.06 1.06 1.00 0.83 0.69 0.56 0.51 0.55 0.58 0.60 0.66 0.72 0.79 0.84
0.91 0.93 0.93 0.99 1.02 1.00 0.98 0.96 0.93 0.91 0.96 0.99 1.05 1.15 1.21 1.34 1.45 1.44 1.52 1.60 1.79 2.00 2.07 2.20 2.24 2.00 1.68 1.45 1.34 1.19 0.97 0.86 0.85 0.72 0.58 0.52 0.49 0.52 0.54 0.58 0.64 0.74 0.83
0.82 0.82 0.83 0.86 0.88 0.97 1.07 1.10 1.07 1.07 1.10 1.02 1.08 1.17 1.16 1.20 1.28 1.31 1.42 1.55 1.70 1.85 2.02 2.13 2.26 2.08 1.90 1.60 1.59 1.40 1.15 1.06 0.85 0.80 0.68 0.57 0.52 0.51 0.51 0.56 0.60 0.67 0.74
0.84 0.83 0.78 0.79 0.82 0.83 0.90 1.04 1.10 1.10 1.07 1.02 1.02 1.02 0.99 1.00 1.08 1.16 1.23 1.39 1.54 1.68 1.80 1.85 2.00 2.07 2.09 2.05 1.97 1.74 1.56 1.36 1.10 0.87 0.82 0.65 0.57 0.54 0.52 0.52 0.55 0.62 0.72
0.77 0.81 0.74 0.71 0.77 0.81 0.79 0.81 0.93 0.96 0.96 0.94 0.96 0.89 0.77 0.78 0.82 0.86 0.92 1.15 1.31 1.45 1.60 1.71 1.85 2.03 2.14 2.25 2.11 1.98 1.86 1.73 1.48 1.27 1.24 0.96 0.81 0.66 0.56 0.54 0.54 0.55 0.62
0.73 0.73 0.68 0.66 0.67 0.61 0.62 0.59 0.61 0.70 0.76 0.78 0.82 0.83 0.75 0.65 0.60 0.62 0.65 0.77 0.95 1.11 1.34 1.59 1.78 1.99 2.07 2.04 2.15 2.15 2.08 1.94 1.82 1.63 1.58 1.55 1.37 1.19 0.94 0.69 0.64 0.56 0.52
0.71 0.69 0.64 0.60 0.60 0.58 0.47 0.41 0.41 0.51 0.61 0.64 0.68 0.74 0.65 0.58 0.57 0.53 0.57 0.65 0.70 0.78 0.91 1.22 1.49 1.61 1.63 1.62 1.85 2.05 2.05 1.97 1.95 1.84 1.81 1.90 1.78 1.54 1.19 0.98 0.86 0.68 0.59
0.68 0.69 0.64 0.61 0.64 0.60 0.46 0.38 0.34 0.35 0.48 0.58 0.61 0.66 0.68 0.68 0.61 0.59 0.58 0.63 0.60 0.60 0.63 0.71 0.86 1.01 1.18 1.32 1.53 1.83 2.07 2.05 2.08 2.05 1.96 2.10 2.01 1.84 1.49 1.14 0.95 0.74 0.65
0.63 0.63 0.65 0.66 0.67 0.64 0.46 0.36 0.34 0.41 0.53 0.57 0.60 0.60 0.63 0.68 0.62 0.52 0.53 0.58 0.61 0.62 0.56 0.58 0.62 0.74 0.89 1.04 1.22 1.46 1.72 1.98 2.25 2.29 2.04 2.08 2.07 2.05 2.02 1.61 1.20 0.96 0.76
0.66 0.62 0.64 0.67 0.67 0.71 0.51 0.32 0.29 0.42 0.59 0.65 0.73 0.72 0.58 0.54 0.53 0.41 0.44 0.53 0.54 0.55 0.51 0.54 0.57 0.60 0.66 0.79 0.92 1.12 1.29 1.51 1.77 1.98 1.94 1.96 2.10 2.33 2.49 2.11 1.56 1.13 0.91

GEFSMA_prec_meanprecacc_138.txt.gz
Total_Precipitation_Accumulation
1.64 1.64 1.54 1.59 1.56 1.73 1.91 2.19 2.13 2.37 2.34 2.07 1.75 1.55 1.49 1.40 1.26 1.42 1.69 1.80 1.68 1.74 2.40 2.81 2.69 2.41 2.05 1.68 1.45 1.37 1.26 1.09 0.92 0.71 0.62 0.64 0.65 0.68 0.59 0.45 0.37 0.31 0.24
2.16 2.10 1.91 1.87 1.77 1.84 2.10 2.36 2.39 2.74 2.59 2.44 1.98 1.83 1.66 1.50 1.44 1.57 1.72 1.95 1.94 1.95 2.25 2.69 2.92 2.84 2.50 2.02 1.65 1.44 1.36 1.29 1.15 0.86 0.69 0.66 0.70 0.74 0.68 0.58 0.46 0.36 0.28
2.35 2.23 2.08 2.00 2.11 2.26 2.40 2.43 2.52 2.80 2.55 2.42 2.18 2.02 1.83 1.62 1.50 1.65 1.81 2.02 1.89 1.89 2.16 2.49 2.84 2.82 2.64 2.38 1.98 1.72 1.54 1.42 1.35 1.08 0.81 0.69 0.68 0.70 0.69 0.66 0.55 0.41 0.28
2.40 2.43 2.19 2.03 2.30 2.45 2.59 2.68 2.65 2.69 2.65 2.57 2.39 2.06 1.86 1.75 1.54 1.60 1.66 1.76 1.83 1.53 1.83 2.35 2.52 2.42 2.45 2.54 2.48 2.36 2.10 1.77 1.59 1.31 1.00 0.83 0.76 0.74 0.72 0.69 0.60 0.42 0.26
2.34 2.59 2.36 2.33 2.50 2.69 2.60 2.43 2.71 2.81 2.68 2.63 2.36 2.16 1.78 1.62 1.55 1.48 1.49 1.52 1.65 1.61 1.56 1.75 2.18 2.12 2.32 2.62 2.78 2.88 2.73 2.39 2.02 1.69 1.36 1.12 1.02 0.90 0.76 0.70 0.63 0.44 0.28
2.32 2.57 2.35 2.40 2.61 2.74 2.76 2.75 2.80 2.79 2.64 2.67 2.39 2.11 1.77 1.44 1.40 1.34 1.25 1.33 1.37 1.24 1.26 1.37 1.66 1.53 1.72 2.07 2.44 2.80 3.03 3.04 2.64 2.13 1.88 1.69 1.53 1.25 0.93 0.72 0.60 0.50 0.37
2.23 2.50 2.23 2.52 2.67 2.65 2.74 2.77 2.90 2.77 2.60 2.77 2.62 2.11 1.63 1.34 1.17 1.05 1.07 1.13 1.08 1.15 1.32 1.53 1.72 1.72 1.56 1.58 1.77 2.17 2.76 3.26 3.18 2.71 2.46 2.31 2.13 1.76 1.21 0.89 0.63 0.50 0.44
2.13 2.30 2.56 2.60 2.67 2.68 2.70 2.68 2.70 2.50 2.32 2.66 2.65 2.40 1.80 1.41 1.09 0.92 1.05 1.01 1.05 1.25 1.27 1.32 1.56 1.79 1.68 1.69 1.56 1.53 2.24 3.02 3.35 3.26 3.16 3.01 2.74 2.12 1.52 1.14 0.77 0.56 0.49
2.23 2.36 2.53 2.62 2.54 2.45 2.48 2.59 2.50 2.35 2.17 2.31 2.58 2.57 2.05 1.54 1.18 0.97 1.00 1.03 1.27 1.38 1.24 1.20 1.18 1.24 1.32 1.62 1.86 1.67 1.78 2.07 2.59 3.27 3.63 3.66 3.17 2.25 1.63 1.33 1.08 0.76 0.56
1.98 2.09 2.17 2.33 2.39 2.38 2.34 2.31 2.29 2.30 2.20 2.07 2.32 2.40 2.24 1.96 1.66 1.18 0.95 0.99 1.22 1.30 1.22 1.10 1.10 1.18 1.26 1.52 1.77 1.61 1.45 1.34 1.52 2.26 2.99 3.18 2.88 2.14 1.64 1.48 1.47 1.20 0.79
1.81 1.81 1.92 2.11 2.16 2.09 2.07 2.22 2.38 2.35 2.18 2.02 2.11 2.21 2.35 2.28 1.98 1.60 1.15 1.07 1.08 1.02 1.12 1.12 1.11 1.16 1.30 1.52 1.66 1.43 1.42 1.23 1.12 1.36 1.85 2.24 2.34 2.06 1.72 1.67 1.83 1.75 1.37
1.74 1.68 1.71 1.83 1.90 1.89 1.86 1.90 2.01 2.04 2.01 2.08 2.11 2.12 2.22 2.20 2.09 1.97 1.54 1.30 1.16 0.89 0.95 1.01 1.08 1.11 1.20 1.33 1.25 1.27 1.34 1.16 1.03 1.01 1.18 1.45 1.71 1.82 1.73 1.80 1.99 2.03 1.89
1.68 1.65 1.59 1.55 1.55 1.59 1.68 1.82 1.84 1.85 1.93 2.03 2.04 2.08 2.01 1.95 2.02 2.02 1.81 1.52 1.32 1.00 0.99 0.94 0.97 1.03 1.02 1.22 1.28 1.34 1.22 1.03 0.93 0.91 0.95 1.05 1.21 1.36 1.50 1.63 1.86 2.05 2.12
1.63 1.52 1.39 1.34 1.33 1.36 1.45 1.61 1.78 1.79 1.88 1.92 1.88 1.93 1.83 1.75 1.89 1.86 1.81 1.80 1.62 1.42 1.36 1.18 0.96 0.94 0.99 1.06 1.15 1.22 1.10 1.03 0.88 0.78 0.76 0.82 0.92 1.03 1.15 1.33 1.52 1.63 1.73
1.34 1.30 1.27 1.26 1.22 1.25 1.29 1.33 1.45 1.47 1.56 1.62 1.70 1.67 1.58 1.59 1.69 1.73 1.82 1.88 1.82 1.66 1.61 1.50 1.16 0.94 0.97 1.05 1.24 1.11 1.00 0.92 0.85 0.78 0.67 0.67 0.71 0.78 0.87 0.97 1.13 1.25 1.28
1.23 1.17 1.18 1.18 1.13 1.11 1.13 1.17 1.20 1.26 1.24 1.29 1.47 1.49 1.48 1.50 1.61 1.64 1.70 1.84 1.93 1.93 1.75 1.58 1.40 1.12 1.10 1.01 1.12 1.11 1.06 0.98 0.83 0.72 0.62 0.60 0.62 0.66 0.74 0.80 0.88 1.00 1.05
1.16 1.17 1.14 1.10 1.01 0.95 0.94 0.97 0.98 1.08 1.09 1.08 1.17 1.20 1.26 1.37 1.51 1.57 1.61 1.67 1.87 2.03 1.91 1.81 1.69 1.55 1.40 1.24 1.09 1.07 1.07 1.01 0.84 0.71 0.58 0.54 0.58 0.61 0.64 0.70 0.78 0.86 0.93
0.91 0.93 0.93 0.99 1.02 1.00 0.98 0.97 0.93 0.91 0.97 0.99 1.06 1.16 1.22 1.35 1.46 1.44 1.53 1.61 1.80 2.02 2.08 2.21 2.26 2.01 1.70 1.47 1.35 1.20 0.98 0.88 0.87 0.75 0.60 0.53 0.52 0.55 0.57 0.62 0.68 0.79 0.89
0.82 0.82 0.83 0.86 0.88 0.97 1.07 1.10 1.07 1.08 1.10 1.02 1.08 1.17 1.16 1.20 1.29 1.31 1.43 1.56 1.71 1.86 2.03 2.13 2.26 2.09 1.90 1.61 1.60 1.41 1.16 1.07 0.86 0.81 0.70 0.59 0.54 0.53 0.54 0.59 0.64 0.70 0.78
0.84 0.83 0.79 0.79 0.82 0.83 0.90 1.04 1.10 1.10 1.07 1.03 1.02 1.02 0.99 1.00 1.09 1.18 1.23 1.40 1.55 1.69 1.81 1.86 2.01 2.07 2.09 2.06 1.98 1.75 1.57 1.37 1.12 0.88 0.83 0.66 0.59 0.56 0.54 0.54 0.58 0.65 0.75
0.77 0.81 0.74 0.71 0.77 0.81 0.79 0.81 0.93 0.96 0.96 0.94 0.96 0.89 0.77 0.78 0.82 0.86 0.93 1.16 1.33 1.47 1.62 1.72 1.86 2.04 2.15 2.26 2.12 1.99 1.87 1.74 1.49 1.29 1.26 0.98 0.83 0.69 0.59 0.57 0.57 0.59 0.65
0.73 0.73 0.68 0.66 0.67 0.61 0.62 0.59 0.61 0.70 0.76 0.78 0.82 0.84 0.75 0.65 0.60 0.62 0.65 0.77 0.96 1.12 1.35 1.61 1.79 2.01 2.09 2.06 2.17 2.17 2.10 1.96 1.83 1.65 1.60 1.57 1.39 1.21 0.97 0.72 0.66 0.59 0.55
0.71 0.69 0.64 0.60 0.60 0.59 0.47 0.41 0.41 0.51 0.61 0.64 0.69 0.74 0.66 0.59 0.57 0.53 0.58 0.65 0.70 0.78 0.92 1.23 1.51 1.63 1.65 1.65 1.88 2.08 2.07 2.00 1.97 1.86 1.84 1.93 1.82 1.57 1.20 0.99 0.87 0.70 0.61
0.69 0.69 0.64 0.61 0.64 0.60 0.46 0.38 0.34 0.35 0.48 0.58 0.61 0.66 0.68 0.69 0.61 0.59 0.59 0.64 0.62 0.61 0.64 0.72 0.88 1.03 1.21 1.35 1.57 1.86 2.10 2.08 2.11 2.08 1.99 2.13 2.04 1.88 1.52 1.17 0.97 0.75 0.67
0.63 0.64 0.66 0.66 0.67 0.65 0.46 0.36 0.34 0.41 0.53 0.57 0.60 0.60 0.64 0.68 0.62 0.52 0.54 0.59 0.62 0.63 0.57 0.58 0.62 0.75 0.90 1.05 1.24 1.49 1.75 2.02 2.28 2.31 2.08 2.11 2.10 2.09 2.06 1.65 1.22 0.97 0.77
0.66 0.62 0.64 0.68 0.67 0.71 0.51 0.32 0.29 0.42 0.59 0.65 0.73 0.72 0.58 0.54 0.53 0.41 0.44 0.54 0.55 0.56 0.52 0.55 0.58 0.61 0.66 0.80 0.94 1.14 1.33 1.56 1.82 2.01 1.98 2.01 2.15 2.39 2.54 2.15 1.59 1.16 0.93

GEFSMA_prec_meanprecacc_144.txt.gz
Total_Precipitation_Accumulation
1.77 1.76 1.67 1.70 1.67 1.85 2.03 2.30 2.23 2.47 2.42 2.15 1.79 1.59 1.57 1.47 1.36 1.54 1.82 1.91 1.75 1.79 2.46 2.88 2.76 2.47 2.09 1.71 1.47 1.39 1.28 1.10 0.94 0.73 0.64 0.66 0.69 0.71 0.62 0.46 0.38 0.32 0.25
2.27 2.21 2.00 1.98 1.88 1.95 2.22 2.47 2.49 2.87 2.71 2.56 2.05 1.88 1.71 1.56 1.50 1.66 1.85 2.09 2.02 1.99 2.31 2.74 2.97 2.90 2.56 2.06 1.68 1.46 1.39 1.31 1.18 0.88 0.71 0.68 0.72 0.77 0.72 0.60 0.47 0.37 0.28
2.42 2.30 2.15 2.07 2.19 2.32 2.49 2.53 2.62 2.93 2.65 2.54 2.30 2.12 1.90 1.69 1.56 1.73 1.94 2.24 2.05 1.97 2.22 2.56 2.91 2.88 2.71 2.44 2.03 1.75 1.57 1.45 1.38 1.11 0.84 0.71 0.69 0.72 0.72 0.69 0.57 0.41 0.28
2.43 2.49 2.25 2.08 2.35 2.50 2.66 2.80 2.77 2.82 2.80 2.73 2.55 2.19 1.98 1.84 1.63 1.69 1.77 1.93 2.04 1.68 1.98 2.45 2.62 2.53 2.54 2.64 2.58 2.44 2.16 1.82 1.63 1.34 1.03 0.85 0.77 0.75 0.73 0.72 0.62 0.43 0.26
2.37 2.62 2.41 2.39 2.57 2.76 2.67 2.50 2.82 2.93 2.84 2.80 2.51 2.30 1.90 1.73 1.65 1.57 1.61 1.69 1.85 1.80 1.73 1.90 2.30 2.24 2.43 2.74 2.91 3.00 2.84 2.48 2.08 1.73 1.39 1.15 1.04 0.91 0.77 0.71 0.65 0.46 0.29
2.34 2.59 2.38 2.44 2.66 2.81 2.84 2.84 2.89 2.87 2.74 2.79 2.48 2.22 1.87 1.53 1.46 1.42 1.35 1.46 1.50 1.34 1.38 1.51 1.82 1.63 1.82 2.17 2.55 2.91 3.15 3.16 2.74 2.20 1.94 1.73 1.56 1.28 0.94 0.73 0.61 0.51 0.39
2.24 2.52 2.25 2.55 2.70 2.70 2.80 2.84 2.99 2.85 2.70 2.87 2.72 2.20 1.71 1.40 1.23 1.11 1.15 1.23 1.19 1.25 1.43 1.67 1.90 1.89 1.69 1.69 1.86 2.26 2.86 3.37 3.30 2.81 2.53 2.37 2.17 1.78 1.23 0.91 0.64 0.51 0.46
2.15 2.31 2.57 2.63 2.70 2.72 2.74 2.72 2.76 2.57 2.38 2.72 2.71 2.48 1.88 1.50 1.18 1.01 1.14 1.10 1.17 1.41 1.42 1.46 1.71 1.97 1.84 1.84 1.69 1.64 2.35 3.15 3.50 3.41 3.28 3.10 2.79 2.16 1.55 1.16 0.79 0.57 0.50
2.25 2.39 2.55 2.64 2.57 2.48 2.51 2.61 2.53 2.39 2.22 2.35 2.61 2.62 2.11 1.62 1.29 1.06 1.06 1.10 1.36 1.49 1.37 1.35 1.34 1.41 1.50 1.83 2.08 1.83 1.91 2.20 2.74 3.43 3.78 3.80 3.27 2.32 1.67 1.36 1.10 0.78 0.57
1.99 2.11 2.19 2.34 2.41 2.40 2.36 2.33 2.31 2.32 2.23 2.11 2.35 2.43 2.27 2.00 1.72 1.25 1.01 1.05 1.27 1.36 1.29 1.18 1.21 1.32 1.42 1.71 1.97 1.79 1.61 1.48 1.66 2.42 3.16 3.35 3.05 2.29 1.74 1.55 1.52 1.24 0.81
1.81 1.82 1.93 2.11 2.17 2.10 2.08 2.23 2.39 2.36 2.20 2.05 2.14 2.25 2.39 2.32 2.00 1.64 1.21 1.11 1.12 1.06 1.16 1.17 1.17 1.23 1.40 1.67 1.83 1.59 1.58 1.37 1.24 1.48 2.00 2.39 2.50 2.22 1.86 1.79 1.93 1.84 1.43
1.75 1.69 1.72 1.83 1.91 1.90 1.87 1.91 2.02 2.05 2.03 2.11 2.13 2.14 2.24 2.23 2.12 2.00 1.59 1.35 1.20 0.93 0.98 1.05 1.12 1.16 1.26 1.41 1.35 1.38 1.46 1.27 1.12 1.09 1.26 1.55 1.82 1.94 1.86 1.93 2.13 2.15 1.99
1.69 1.65 1.60 1.55 1.56 1.60 1.68 1.83 1.85 1.85 1.94 2.04 2.06 2.10 2.03 1.97 2.05 2.04 1.84 1.55 1.36 1.03 1.03 0.97 1.00 1.07 1.05 1.26 1.35 1.41 1.29 1.10 1.00 0.97 1.01 1.11 1.28 1.44 1.58 1.71 1.98 2.19 2.26
1.63 1.52 1.39 1.35 1.34 1.36 1.45 1.62 1.78 1.80 1.88 1.93 1.89 1.94 1.84 1.77 1.90 1.88 1.83 1.83 1.65 1.46 1.39 1.22 1.00 0.98 1.02 1.10 1.20 1.27 1.16 1.08 0.91 0.82 0.81 0.87 0.97 1.08 1.20 1.38 1.57 1.71 1.84
1.34 1.30 1.27 1.26 1.22 1.25 1.30 1.33 1.46 1.48 1.56 1.62 1.70 1.69 1.60 1.61 1.71 1.75 1.83 1.90 1.84 1.69 1.65 1.54 1.21 0.98 1.01 1.08 1.27 1.14 1.05 0.98 0.89 0.80 0.70 0.71 0.75 0.82 0.91 1.01 1.17 1.30 1.33
1.24 1.17 1.18 1.18 1.13 1.11 1.14 1.17 1.21 1.26 1.24 1.29 1.47 1.50 1.48 1.50 1.61 1.65 1.71 1.85 1.95 1.94 1.77 1.61 1.42 1.14 1.13 1.03 1.14 1.13 1.08 1.02 0.87 0.76 0.66 0.62 0.64 0.69 0.77 0.83 0.91 1.03 1.08
1.16 1.18 1.14 1.10 1.01 0.95 0.95 0.97 0.98 1.08 1.09 1.09 1.17 1.20 1.26 1.37 1.52 1.57 1.61 1.68 1.88 2.04 1.93 1.83 1.70 1.56 1.42 1.26 1.11 1.09 1.09 1.03 0.86 0.73 0.61 0.57 0.60 0.63 0.66 0.73 0.80 0.89 0.95
0.91 0.93 0.93 0.99 1.02 1.01 0.98 0.97 0.93 0.92 0.97 1.00 1.07 1.17 1.23 1.35 1.47 1.45 1.54 1.62 1.81 2.03 2.10 2.23 2.27 2.03 1.72 1.49 1.37 1.22 0.98 0.88 0.88 0.76 0.61 0.55 0.53 0.56 0.59 0.64 0.70 0.82 0.92
0.82 0.82 0.83 0.86 0.89 0.97 1.08 1.10 1.07 1.08 1.10 1.02 1.08 1.17 1.17 1.21 1.30 1.32 1.44 1.57 1.72 1.86 2.04 2.15 2.28 2.10 1.91 1.62 1.61 1.42 1.17 1.08 0.87 0.82 0.71 0.60 0.54 0.54 0.55 0.60 0.66 0.72 0.80
0.84 0.83 0.79 0.79 0.82 0.83 0.90 1.04 1.10 1.10 1.07 1.03 1.03 1.02 0.99 1.01 1.10 1.19 1.25 1.41 1.56 1.70 1.82 1.87 2.01 2.08 2.10 2.06 1.99 1.76 1.58 1.38 1.12 0.89 0.84 0.67 0.60 0.57 0.55 0.55 0.58 0.66 0.77
0.77 0.81 0.74 0.72 0.77 0.81 0.79 0.81 0.93 0.96 0.96 0.95 0.96 0.89 0.78 0.78 0.82 0.86 0.93 1.17 1.34 1.48 1.63 1.74 1.87 2.05 2.16 2.29 2.14 2.01 1.88 1.76 1.50 1.29 1.27 0.99 0.84 0.70 0.59 0.57 0.58 0.59 0.66
0.73 0.74 0.68 0.66 0.67 0.61 0.62 0.59 0.61 0.70 0.76 0.78 0.83 0.84 0.76 0.65 0.61 0.63 0.65 0.77 0.96 1.12 1.36 1.62 1.81 2.02 2.11 2.08 2.19 2.19 2.12 1.98 1.85 1.66 1.62 1.58 1.41 1.23 0.98 0.73 0.67 0.59 0.56
0.71 0.70 0.64 0.61 0.60 0.59 0.47 0.41 0.41 0.51 0.61 0.64 0.69 0.75 0.66 0.59 0.57 0.54 0.59 0.65 0.71 0.78 0.92 1.23 1.52 1.64 1.67 1.67 1.91 2.10 2.11 2.03 2.00 1.88 1.88 1.95 1.84 1.58 1.22 1.01 0.88 0.71 0.62
0.69 0.70 0.65 0.61 0.65 0.60 0.46 0.38 0.34 0.35 0.48 0.58 0.62 0.66 0.69 0.69 0.62 0.60 0.60 0.65 0.63 0.63 0.66 0.73 0.89 1.04 1.22 1.37 1.59 1.89 2.12 2.11 2.12 2.09 2.02 2.15 2.06 1.90 1.54 1.19 0.98 0.76 0.68
0.64 0.64 0.66 0.67 0.68 0.66 0.47 0.36 0.34 0.41 0.53 0.57 0.60 0.61 0.64 0.69 0.63 0.52 0.54 0.60 0.63 0.65 0.57 0.59 0.63 0.75 0.90 1.06 1.24 1.49 1.76 2.03 2.29 2.33 2.11 2.14 2.12 2.12 2.08 1.67 1.24 0.99 0.78
0.67 0.62 0.64 0.68 0.68 0.72 0.52 0.32 0.29 0.42 0.59 0.65 0.74 0.72 0.58 0.54 0.53 0.41 0.44 0.55 0.56 0.57 0.53 0.56 0.58 0.61 0.67 0.81 0.94 1.14 1.34 1.58 1.84 2.02 2.00 2.05 2.18 2.43 2.56 2.17 1.62 1.18 0.95

GEFSMA_prec_meanprecacc_150.txt.gz
Total_Precipitation_Accumulation
1.83 1.79 1.70 1.73 1.69 1.87 2.06 2.33 2.27 2.51 2.47 2.20 1.86 1.66 1.65 1.61 1.51 1.70 1.96 2.02 1.86 1.89 2.54 2.94 2.80 2.51 2.12 1.73 1.49 1.40 1.29 1.11 0.95 0.74 0.65 0.68 0.71 0.72 0.63 0.47 0.39 0.32 0.25
2.31 2.23 2.03 2.00 1.89 1.96 2.24 2.49 2.51 2.89 2.74 2.59 2.11 1.95 1.79 1.67 1.62 1.77 1.96 2.19 2.14 2.11 2.40 2.82 3.03 2.95 2.61 2.10 1.71 1.48 1.39 1.32 1.19 0.89 0.72 0.70 0.75 0.79 0.73 0.61 0.48 0.37 0.29
2.45 2.32 2.17 2.08 2.20 2.34 2.51 2.55 2.65 2.95 2.68 2.56 2.34 2.17 1.95 1.74 1.65 1.83 2.05 2.34 2.16 2.08 2.34 2.66 2.99 2.94 2.77 2.50 2.09 1.80 1.60 1.47 1.39 1.12 0.84 0.72 0.70 0.74 0.74 0.70 0.58 0.42 0.28
2.45 2.51 2.27 2.09 2.36 2.51 2.68 2.81 2.78 2.84 2.82 2.75 2.57 2.23 2.04 1.89 1.70 1.77 1.87 2.01 2.13 1.78 2.10 2.58 2.73 2.61 2.62 2.72 2.66 2.51 2.20 1.84 1.65 1.36 1.04 0.86 0.78 0.76 0.75 0.73 0.63 0.44 0.27
2.39 2.64 2.43 2.40 2.58 2.78 2.68 2.51 2.83 2.94 2.85 2.82 2.53 2.33 1.95 1.77 1.70 1.63 1.72 1.80 1.96 1.89 1.83 1.99 2.39 2.33 2.52 2.83 3.01 3.08 2.89 2.52 2.11 1.76 1.42 1.17 1.06 0.92 0.78 0.73 0.66 0.46 0.30
2.35 2.61 2.40 2.45 2.67 2.83 2.87 2.86 2.91 2.89 2.75 2.81 2.50 2.25 1.92 1.58 1.50 1.45 1.40 1.54 1.60 1.44 1.48 1.61 1.90 1.70 1.89 2.26 2.65 3.03 3.25 3.25 2.81 2.27 1.99 1.77 1.59 1.29 0.95 0.75 0.62 0.52 0.39
2.26 2.53 2.27 2.56 2.71 2.71 2.82 2.87 3.00 2.87 2.71 2.89 2.74 2.24 1.76 1.45 1.27 1.16 1.18 1.28 1.25 1.32 1.54 1.79 1.99 1.97 1.75 1.77 1.95 2.37 2.99 3.49 3.40 2.90 2.62 2.44 2.24 1.83 1.26 0.92 0.65 0.52 0.46
2.17 2.33 2.59 2.64 2.71 2.73 2.75 2.73 2.76 2.57 2.39 2.73 2.73 2.51 1.92 1.54 1.23 1.05 1.20 1.17 1.25 1.50 1.52 1.56 1.82 2.07 1.94 1.93 1.77 1.75 2.49 3.31 3.67 3.55 3.39 3.20 2.88 2.23 1.60 1.19 0.81 0.58 0.51
2.27 2.40 2.57 2.65 2.58 2.49 2.52 2.62 2.53 2.39 2.22 2.36 2.62 2.63 2.12 1.64 1.31 1.08 1.11 1.17 1.46 1.60 1.49 1.46 1.47 1.54 1.61 1.94 2.16 1.90 2.00 2.31 2.87 3.59 3.94 3.93 3.39 2.42 1.76 1.43 1.15 0.80 0.58
2.01 2.13 2.20 2.36 2.42 2.41 2.37 2.33 2.31 2.32 2.23 2.11 2.35 2.43 2.28 2.01 1.73 1.26 1.03 1.09 1.33 1.42 1.36 1.25 1.29 1.42 1.52 1.82 2.07 1.87 1.67 1.56 1.74 2.54 3.31 3.50 3.17 2.39 1.83 1.64 1.60 1.31 0.86
1.83 1.83 1.93 2.12 2.18 2.10 2.09 2.23 2.39 2.36 2.20 2.05 2.14 2.25 2.39 2.32 2.01 1.64 1.22 1.13 1.14 1.08 1.19 1.21 1.21 1.27 1.46 1.72 1.89 1.65 1.63 1.43 1.30 1.56 2.11 2.52 2.62 2.33 1.95 1.88 2.04 1.95 1.52
1.75 1.69 1.72 1.83 1.91 1.90 1.87 1.91 2.02 2.05 2.03 2.11 2.13 2.14 2.25 2.24 2.12 2.00 1.59 1.36 1.21 0.95 1.00 1.07 1.14 1.19 1.29 1.44 1.40 1.42 1.51 1.34 1.19 1.15 1.35 1.66 1.94 2.06 1.97 2.04 2.24 2.27 2.11
1.69 1.66 1.60 1.55 1.56 1.60 1.68 1.83 1.85 1.85 1.94 2.04 2.06 2.10 2.03 1.97 2.05 2.04 1.84 1.55 1.37 1.04 1.04 0.99 1.01 1.09 1.07 1.28 1.38 1.46 1.34 1.18 1.09 1.05 1.08 1.19 1.37 1.53 1.68 1.81 2.08 2.31 2.39
1.63 1.52 1.39 1.35 1.34 1.36 1.45 1.62 1.78 1.80 1.88 1.93 1.89 1.94 1.84 1.77 1.90 1.88 1.84 1.83 1.65 1.46 1.40 1.22 1.01 0.99 1.03 1.12 1.22 1.29 1.18 1.11 0.96 0.88 0.87 0.93 1.04 1.15 1.27 1.45 1.65 1.79 1.93
1.34 1.30 1.27 1.26 1.22 1.25 1.30 1.34 1.46 1.48 1.56 1.62 1.70 1.69 1.60 1.61 1.71 1.75 1.83 1.90 1.84 1.69 1.65 1.55 1.22 1.00 1.01 1.09 1.28 1.15 1.06 0.99 0.91 0.83 0.74 0.75 0.79 0.87 0.96 1.05 1.21 1.34 1.38
1.24 1.17 1.18 1.18 1.13 1.11 1.14 1.17 1.21 1.26 1.24 1.29 1.47 1.50 1.48 1.50 1.61 1.65 1.71 1.85 1.95 1.94 1.77 1.61 1.43 1.16 1.15 1.04 1.14 1.14 1.09 1.03 0.88 0.76 0.67 0.64 0.66 0.72 0.81 0.87 0.94 1.06 1.11
1.16 1.18 1.14 1.11 1.01 0.95 0.95 0.97 0.98 1.08 1.09 1.09 1.17 1.20 1.26 1.37 1.52 1.57 1.61 1.68 1.88 2.04 1.93 1.83 1.71 1.57 1.43 1.27 1.11 1.10 1.10 1.04 0.86 0.74 0.62 0.58 0.62 0.65 0.68 0.75 0.83 0.92 0.99
0.91 0.93 0.93 0.99 1.02 1.01 0.98 0.97 0.93 0.92 0.97 1.00 1.07 1.17 1.23 1.35 1.47 1.45 1.54 1.62 1.81 2.03 2.10 2.23 2.27 2.03 1.72 1.49 1.38 1.22 0.99 0.89 0.89 0.76 0.62 0.56 0.55 0.58 0.61 0.65 0.72 0.84 0.94
0.82 0.82 0.83 0.86 0.89 0.97 1.08 1.10 1.07 1.08 1.10 1.02 1.08 1.17 1.17 1.21 1.30 1.32 1.44 1.57 1.72 1.86 2.04 2.15 2.28 2.10 1.91 1.62 1.61 1.42 1.17 1.08 0.87 0.82 0.71 0.60 0.55 0.55 0.56 0.61 0.67 0.73 0.81
0.84 0.83 0.79 0.79 0.82 0.83 0.90 1.04 1.10 1.10 1.07 1.03 1.03 1.02 0.99 1.01 1.10 1.19 1.25 1.41 1.56 1.70 1.82 1.87 2.01 2.08 2.10 2.06 1.99 1.76 1.59 1.39 1.13 0.89 0.84 0.68 0.61 0.57 0.55 0.56 0.59 0.67 0.77
0.77 0.81 0.74 0.72 0.77 0.81 0.79 0.81 0.93 0.96 0.96 0.95 0.96 0.89 0.78 0.78 0.82 0.86 0.93 1.17 1.34 1.48 1.63 1.74 1.87 2.05 2.16 2.29 2.14 2.01 1.88 1.76 1.50 1.30 1.27 0.99 0.85 0.70 0.60 0.58 0.58 0.60 0.66
0.73 0.74 0.68 0.66 0.67 0.61 0.63 0.59 0.61 0.70 0.76 0.78 0.83 0.84 0.76 0.65 0.61 0.63 0.65 0.77 0.96 1.12 1.36 1.62 1.81 2.02 2.11 2.08 2.19 2.19 2.12 1.98 1.85 1.67 1.63 1.59 1.42 1.24 0.99 0.74 0.68 0.60 0.56
0.72 0.70 0.65 0.61 0.60 0.59 0.47 0.42 0.42 0.52 0.61 0.64 0.69 0.75 0.66 0.59 0.57 0.54 0.59 0.65 0.71 0.78 0.92 1.23 1.52 1.64 1.67 1.67 1.91 2.10 2.11 2.03 2.00 1.88 1.88 1.95 1.84 1.59 1.22 1.01 0.89 0.72 0.62
0.70 0.71 0.65 0.62 0.66 0.61 0.47 0.39 0.35 0.35 0.48 0.58 0.62 0.66 0.69 0.69 0.62 0.60 0.60 0.65 0.63 0.63 0.66 0.73 0.89 1.04 1.22 1.37 1.59 1.89 2.12 2.11 2.12 2.09 2.02 2.15 2.06 1.90 1.54 1.19 0.98 0.76 0.68
0.65 0.65 0.67 0.67 0.69 0.66 0.47 0.36 0.34 0.41 0.53 0.57 0.60 0.61 0.64 0.69 0.63 0.52 0.54 0.60 0.63 0.65 0.57 0.59 0.63 0.75 0.90 1.06 1.24 1.49 1.76 2.03 2.29 2.33 2.11 2.14 2.12 2.12 2.08 1.67 1.25 0.99 0.78
0.68 0.63 0.64 0.68 0.68 0.72 0.52 0.32 0.29 0.42 0.59 0.65 0.74 0.72 0.58 0.54 0.53 0.41 0.44 0.55 0.56 0.57 0.53 0.56 0.58 0.61 0.67 0.81 0.94 1.14 1.34 1.58 1.84 2.02 2.00 2.05 2.18 2.44 2.56 2.17 1.62 1.18 0.96

GEFSMA_prec_meanprecacc_156.txt.gz
Total_Precipitation_Accumulation
1.87 1.83 1.73 1.74 1.70 1.88 2.07 2.35 2.28 2.53 2.49 2.22 1.88 1.68 1.67 1.63 1.53 1.73 1.99 2.08 1.93 1.95 2.59 2.99 2.85 2.56 2.17 1.76 1.51 1.41 1.31 1.13 0.97 0.76 0.68 0.71 0.74 0.75 0.65 0.49 0.40 0.33 0.26
2.34 2.26 2.05 2.02 1.91 1.98 2.28 2.54 2.55 2.92 2.76 2.61 2.15 1.98 1.82 1.71 1.65 1.82 2.02 2.24 2.23 2.19 2.47 2.89 3.12 3.03 2.67 2.14 1.74 1.50 1.42 1.34 1.21 0.91 0.74 0.73 0.78 0.81 0.76 0.63 0.49 0.38 0.30
2.48 2.35 2.19 2.11 2.21 2.35 2.53 2.59 2.69 2.98 2.71 2.58 2.37 2.21 2.01 1.80 1.70 1.88 2.10 2.39 2.23 2.17 2.44 2.78 3.12 3.06 2.87 2.58 2.14 1.84 1.63 1.49 1.41 1.14 0.86 0.73 0.73 0.76 0.76 0.72 0.59 0.43 0.29
2.50 2.54 2.30 2.12 2.37 2.52 2.70 2.84 2.81 2.86 2.84 2.77 2.60 2.27 2.11 1.98 1.77 1.83 1.92 2.06 2.19 1.84 2.19 2.72 2.88 2.76 2.74 2.85 2.78 2.59 2.25 1.88 1.67 1.38 1.06 0.88 0.80 0.79 0.77 0.74 0.64 0.45 0.27
2.42 2.67 2.45 2.42 2.59 2.79 2.70 2.53 2.86 2.97 2.87 2.83 2.55 2.36 2.00 1.84 1.78 1.72 1.78 1.86 2.02 1.95 1.92 2.12 2.56 2.50 2.68 2.99 3.18 3.24 3.03 2.61 2.16 1.80 1.45 1.19 1.08 0.94 0.80 0.74 0.67 0.47 0.30
2.38 2.63 2.41 2.47 2.69 2.85 2.89 2.87 2.94 2.92 2.78 2.83 2.52 2.28 1.96 1.64 1.56 1.51 1.45 1.59 1.66 1.51 1.57 1.71 2.01 1.84 2.07 2.45 2.85 3.24 3.47 3.43 2.94 2.35 2.05 1.81 1.63 1.33 0.98 0.77 0.64 0.53 0.40
2.30 2.57 2.30 2.60 2.74 2.74 2.85 2.90 3.03 2.90 2.75 2.92 2.77 2.26 1.79 1.50 1.33 1.21 1.23 1.33 1.31 1.39 1.61 1.87 2.09 2.08 1.88 1.93 2.13 2.59 3.25 3.74 3.62 3.07 2.74 2.53 2.30 1.89 1.29 0.95 0.68 0.54 0.48
2.21 2.37 2.63 2.67 2.74 2.76 2.78 2.75 2.77 2.59 2.41 2.76 2.76 2.52 1.93 1.57 1.25 1.07 1.24 1.22 1.31 1.55 1.58 1.64 1.90 2.17 2.07 2.07 1.90 1.90 2.69 3.57 3.97 3.83 3.62 3.37 3.01 2.32 1.66 1.24 0.85 0.61 0.53
2.31 2.43 2.59 2.68 2.60 2.51 2.54 2.63 2.54 2.39 2.22 2.37 2.63 2.63 2.13 1.65 1.32 1.09 1.13 1.21 1.50 1.66 1.57 1.54 1.55 1.63 1.70 2.03 2.27 2.03 2.15 2.49 3.11 3.89 4.25 4.20 3.57 2.56 1.87 1.51 1.22 0.86 0.62
2.04 2.15 2.23 2.38 2.45 2.42 2.38 2.34 2.32 2.33 2.23 2.12 2.36 2.44 2.28 2.01 1.74 1.27 1.05 1.12 1.37 1.47 1.42 1.31 1.36 1.52 1.63 1.92 2.17 1.97 1.78 1.69 1.91 2.78 3.61 3.80 3.42 2.58 1.98 1.77 1.73 1.42 0.94
1.85 1.85 1.95 2.14 2.20 2.12 2.10 2.24 2.40 2.37 2.21 2.05 2.15 2.25 2.39 2.32 2.01 1.64 1.23 1.15 1.17 1.11 1.23 1.25 1.25 1.33 1.54 1.81 1.99 1.76 1.73 1.53 1.42 1.70 2.29 2.74 2.84 2.52 2.12 2.04 2.21 2.12 1.67
1.78 1.72 1.74 1.85 1.92 1.91 1.88 1.92 2.03 2.06 2.04 2.11 2.14 2.15 2.25 2.24 2.12 2.00 1.59 1.36 1.23 0.97 1.03 1.10 1.17 1.22 1.32 1.48 1.45 1.50 1.60 1.43 1.27 1.24 1.47 1.83 2.12 2.24 2.14 2.20 2.39 2.44 2.29
1.71 1.67 1.62 1.56 1.57 1.60 1.68 1.83 1.85 1.86 1.94 2.05 2.06 2.10 2.03 1.97 2.05 2.04 1.84 1.56 1.37 1.05 1.05 1.00 1.03 1.11 1.10 1.32 1.42 1.51 1.41 1.27 1.17 1.12 1.16 1.29 1.50 1.69 1.86 1.99 2.23 2.47 2.58
1.64 1.53 1.40 1.35 1.34 1.36 1.45 1.62 1.78 1.80 1.88 1.93 1.89 1.94 1.84 1.77 1.90 1.88 1.84 1.83 1.65 1.46 1.40 1.23 1.01 0.99 1.04 1.14 1.25 1.32 1.20 1.15 1.01 0.93 0.93 1.00 1.12 1.25 1.40 1.61 1.82 1.96 2.09
1.35 1.31 1.28 1.26 1.23 1.26 1.30 1.34 1.46 1.48 1.56 1.62 1.70 1.69 1.60 1.61 1.71 1.75 1.83 1.90 1.84 1.69 1.65 1.55 1.22 1.01 1.02 1.11 1.30 1.16 1.07 1.00 0.92 0.85 0.77 0.79 0.83 0.92 1.02 1.13 1.30 1.46 1.52
1.24 1.18 1.18 1.19 1.14 1.12 1.14 1.17 1.21 1.26 1.24 1.29 1.47 1.50 1.48 1.50 1.61 1.65 1.71 1.85 1.95 1.94 1.77 1.61 1.43 1.16 1.15 1.06 1.16 1.15 1.11 1.05 0.89 0.77 0.68 0.66 0.69 0.76 0.86 0.92 1.00 1.11 1.16
1.17 1.18 1.15 1.11 1.01 0.95 0.95 0.97 0.98 1.08 1.09 1.09 1.17 1.20 1.26 1.37 1.52 1.57 1.61 1.68 1.88 2.04 1.93 1.83 1.71 1.57 1.44 1.28 1.12 1.10 1.11 1.05 0.87 0.75 0.62 0.59 0.63 0.66 0.70 0.78 0.87 0.97 1.04
0.91 0.93 0.93 0.99 1.02 1.01 0.98 0.97 0.93 0.92 0.97 1.00 1.07 1.17 1.23 1.35 1.47 1.45 1.54 1.62 1.81 2.03 2.10 2.23 2.27 2.03 1.72 1.49 1.38 1.23 0.99 0.90 0.90 0.77 0.62 0.56 0.55 0.58 0.61 0.66 0.73 0.86 0.97
0.82 0.82 0.83 0.86 0.89 0.97 1.08 1.10 1.07 1.08 1.10 1.02 1.08 1.17 1.17 1.21 1.30 1.32 1.44 1.57 1.72 1.86 2.04 2.15 2.28 2.10 1.91 1.62 1.61 1.42 1.18 1.09 0.88 0.82 0.71 0.61 0.55 0.55 0.56 0.62 0.68 0.74 0.82
0.84 0.83 0.79 0.79 0.82 0.83 0.90 1.04 1.10 1.10 1.07 1.03 1.03 1.02 0.99 1.01 1.10 1.19 1.25 1.41 1.56 1.70 1.82 1.87 2.01 2.08 2.10 2.06 1.99 1.76 1.59 1.39 1.13 0.89 0.84 0.68 0.61 0.57 0.56 0.56 0.60 0.68 0.79
0.77 0.81 0.74 0.72 0.77 0.81 0.79 0.81 0.93 0.97 0.96 0.95 0.97 0.90 0.78 0.78 0.82 0.86 0.93 1.17 1.34 1.48 1.63 1.74 1.87 2.05 2.16 2.29 2.15 2.01 1.89 1.76 1.50 1.30 1.27 0.99 0.85 0.70 0.60 0.58 0.59 0.61 0.69
0.73 0.74 0.68 0.66 0.67 0.62 0.63 0.59 0.62 0.71 0.76 0.79 0.83 0.85 0.76 0.65 0.61 0.63 0.65 0.77 0.96 1.12 1.36 1.62 1.81 2.02 2.11 2.08 2.19 2.19 2.12 1.98 1.85 1.67 1.63 1.59 1.42 1.24 0.99 0.74 0.68 0.60 0.57
0.72 0.70 0.65 0.61 0.61 0.60 0.48 0.43 0.43 0.53 0.62 0.65 0.70 0.76 0.66 0.59 0.57 0.54 0.59 0.65 0.71 0.78 0.92 1.23 1.52 1.64 1.67 1.67 1.91 2.10 2.11 2.03 2.00 1.88 1.88 1.95 1.84 1.59 1.22 1.01 0.89 0.72 0.63
0.70 0.71 0.66 0.62 0.66 0.62 0.48 0.40 0.35 0.35 0.48 0.59 0.62 0.66 0.69 0.69 0.62 0.60 0.60 0.65 0.63 0.63 0.66 0.73 0.89 1.04 1.22 1.37 1.59 1.89 2.12 2.11 2.12 2.09 2.02 2.15 2.06 1.90 1.54 1.19 0.98 0.77 0.68
0.65 0.65 0.67 0.67 0.69 0.66 0.48 0.37 0.34 0.41 0.53 0.57 0.60 0.61 0.64 0.69 0.63 0.52 0.54 0.60 0.63 0.65 0.57 0.59 0.63 0.75 0.90 1.06 1.24 1.49 1.76 2.04 2.29 2.33 2.11 2.14 2.12 2.12 2.08 1.67 1.25 0.99 0.78
0.69 0.63 0.65 0.69 0.68 0.72 0.52 0.32 0.29 0.43 0.59 0.65 0.74 0.72 0.58 0.54 0.53 0.41 0.44 0.55 0.56 0.57 0.53 0.56 0.58 0.61 0.67 0.81 0.94 1.15 1.34 1.58 1.84 2.02 2.00 2.05 2.18 2.44 2.57 2.17 1.62 1.18 0.96

GEFSMA_prec_meanprecacc_162.txt.gz
Total_Precipitation_Accumulation
1.94 1.89 1.79 1.80 1.75 1.94 2.13 2.42 2.35 2.59 2.53 2.25 1.90 1.71 1.70 1.68 1.60 1.81 2.08 2.16 2.00 2.02 2.67 3.08 2.96 2.66 2.26 1.84 1.57 1.45 1.34 1.16 0.99 0.78 0.71 0.75 0.77 0.77 0.67 0.51 0.43 0.35 0.27
2.41 2.33 2.11 2.08 1.96 2.03 2.33 2.59 2.61 2.98 2.82 2.66 2.18 2.02 1.87 1.78 1.74 1.92 2.13 2.35 2.32 2.27 2.56 3.00 3.25 3.15 2.76 2.23 1.81 1.57 1.47 1.39 1.25 0.94 0.77 0.77 0.82 0.84 0.79 0.66 0.51 0.40 0.31
2.55 2.41 2.25 2.16 2.27 2.40 2.59 2.63 2.73 3.03 2.76 2.65 2.45 2.27 2.06 1.87 1.77 1.96 2.22 2.52 2.34 2.26 2.54 2.90 3.26 3.19 3.00 2.69 2.22 1.92 1.70 1.55 1.46 1.18 0.89 0.78 0.78 0.80 0.79 0.75 0.61 0.45 0.31
2.57 2.61 2.36 2.17 2.41 2.56 2.73 2.88 2.85 2.91 2.90 2.85 2.68 2.33 2.17 2.05 1.83 1.90 2.02 2.17 2.32 1.96 2.32 2.85 3.02 2.89 2.90 3.01 2.91 2.70 2.36 1.98 1.75 1.44 1.12 0.93 0.84 0.82 0.80 0.77 0.66 0.47 0.29
2.48 2.73 2.52 2.49 2.63 2.82 2.73 2.55 2.89 3.01 2.94 2.90 2.60 2.42 2.06 1.91 1.85 1.77 1.85 1.94 2.15 2.09 2.09 2.27 2.70 2.63 2.83 3.18 3.36 3.44 3.20 2.76 2.26 1.88 1.53 1.26 1.13 0.99 0.84 0.78 0.70 0.50 0.32
2.44 2.69 2.47 2.54 2.73 2.89 2.93 2.93 2.99 2.97 2.85 2.90 2.56 2.31 1.99 1.68 1.63 1.58 1.51 1.66 1.77 1.60 1.68 1.85 2.18 1.96 2.19 2.59 3.01 3.44 3.69 3.62 3.09 2.46 2.14 1.92 1.73 1.42 1.05 0.83 0.68 0.57 0.42
2.35 2.61 2.34 2.65 2.78 2.79 2.92 2.97 3.09 2.97 2.81 2.98 2.83 2.32 1.84 1.53 1.37 1.25 1.28 1.39 1.37 1.46 1.69 1.97 2.22 2.24 2.03 2.06 2.26 2.72 3.42 3.94 3.79 3.22 2.89 2.68 2.45 2.03 1.40 1.03 0.74 0.59 0.51
2.25 2.39 2.65 2.70 2.77 2.81 2.84 2.80 2.83 2.64 2.45 2.80 2.83 2.60 2.00 1.62 1.28 1.10 1.27 1.26 1.36 1.62 1.65 1.70 2.00 2.30 2.20 2.21 2.01 2.00 2.84 3.76 4.17 4.04 3.81 3.53 3.16 2.46 1.80 1.37 0.95 0.69 0.59
2.35 2.46 2.62 2.71 2.63 2.54 2.59 2.68 2.58 2.44 2.27 2.40 2.67 2.68 2.19 1.70 1.35 1.11 1.15 1.23 1.54 1.71 1.64 1.62 1.63 1.73 1.80 2.15 2.41 2.17 2.27 2.60 3.26 4.09 4.47 4.39 3.74 2.71 2.02 1.66 1.35 0.98 0.72
2.08 2.18 2.25 2.41 2.47 2.45 2.41 2.37 2.35 2.36 2.29 2.16 2.39 2.47 2.32 2.05 1.78 1.30 1.07 1.13 1.40 1.52 1.47 1.37 1.43 1.60 1.71 2.02 2.29 2.04 1.84 1.75 1.99 2.92 3.80 4.02 3.65 2.78 2.14 1.90 1.84 1.54 1.06
1.89 1.88 1.98 2.17 2.22 2.14 2.13 2.26 2.42 2.40 2.24 2.09 2.18 2.28 2.41 2.34 2.04 1.68 1.26 1.18 1.20 1.14 1.26 1.28 1.30 1.40 1.61 1.90 2.09 1.82 1.77 1.57 1.47 1.77 2.38 2.86 2.98 2.66 2.26 2.17 2.33 2.24 1.79
1.81 1.75 1.77 1.87 1.94 1.93 1.90 1.93 2.04 2.08 2.06 2.14 2.16 2.16 2.26 2.25 2.14 2.02 1.62 1.39 1.27 1.00 1.06 1.13 1.21 1.27 1.36 1.53 1.49 1.54 1.64 1.47 1.31 1.28 1.51 1.89 2.22 2.35 2.24 2.31 2.51 2.57 2.44
1.74 1.70 1.64 1.58 1.59 1.61 1.69 1.84 1.87 1.87 1.96 2.06 2.08 2.11 2.05 1.98 2.06 2.05 1.85 1.57 1.39 1.06 1.07 1.01 1.05 1.15 1.12 1.35 1.46 1.53 1.44 1.30 1.21 1.16 1.19 1.32 1.55 1.73 1.92 2.07 2.33 2.59 2.72
1.67 1.55 1.41 1.37 1.35 1.37 1.46 1.63 1.80 1.81 1.90 1.95 1.90 1.95 1.85 1.78 1.91 1.89 1.85 1.85 1.66 1.47 1.42 1.24 1.02 1.01 1.08 1.17 1.27 1.33 1.23 1.17 1.04 0.96 0.96 1.03 1.15 1.29 1.43 1.64 1.87 2.03 2.19
1.36 1.32 1.29 1.28 1.24 1.27 1.31 1.34 1.47 1.49 1.57 1.63 1.71 1.69 1.61 1.61 1.71 1.75 1.84 1.91 1.85 1.70 1.66 1.56 1.22 1.01 1.02 1.13 1.33 1.18 1.10 1.03 0.94 0.86 0.78 0.80 0.85 0.94 1.04 1.16 1.34 1.51 1.59
1.25 1.19 1.19 1.19 1.15 1.13 1.15 1.18 1.21 1.27 1.26 1.30 1.48 1.50 1.49 1.51 1.62 1.65 1.71 1.85 1.95 1.95 1.79 1.61 1.43 1.16 1.16 1.07 1.18 1.16 1.13 1.07 0.90 0.78 0.69 0.67 0.70 0.78 0.88 0.95 1.02 1.15 1.20
1.18 1.19 1.15 1.12 1.02 0.96 0.96 0.98 0.99 1.09 1.10 1.10 1.18 1.21 1.27 1.38 1.52 1.58 1.62 1.68 1.89 2.05 1.93 1.83 1.71 1.58 1.44 1.28 1.13 1.12 1.12 1.06 0.89 0.76 0.63 0.59 0.63 0.66 0.71 0.80 0.89 0.99 1.07
0.93 0.94 0.94 1.00 1.03 1.01 0.99 0.97 0.94 0.92 0.98 1.01 1.07 1.17 1.23 1.36 1.47 1.45 1.54 1.62 1.81 2.03 2.10 2.23 2.27 2.03 1.73 1.51 1.39 1.23 1.00 0.91 0.91 0.79 0.64 0.57 0.55 0.59 0.62 0.67 0.74 0.87 0.98
0.83 0.83 0.84 0.87 0.89 0.97 1.08 1.10 1.08 1.08 1.10 1.03 1.08 1.18 1.17 1.21 1.30 1.33 1.44 1.57 1.72 1.87 2.04 2.15 2.28 2.10 1.92 1.62 1.62 1.43 1.18 1.10 0.89 0.83 0.72 0.61 0.56 0.55 0.56 0.62 0.68 0.74 0.82
0.85 0.83 0.79 0.80 0.83 0.83 0.90 1.05 1.10 1.10 1.08 1.03 1.03 1.03 0.99 1.02 1.11 1.19 1.25 1.42 1.57 1.71 1.83 1.87 2.01 2.08 2.10 2.07 2.00 1.77 1.60 1.40 1.13 0.89 0.85 0.68 0.61 0.57 0.56 0.56 0.60 0.68 0.79
0.78 0.82 0.75 0.72 0.77 0.81 0.79 0.81 0.93 0.97 0.96 0.95 0.97 0.90 0.79 0.79 0.83 0.87 0.93 1.17 1.34 1.48 1.64 1.74 1.87 2.05 2.16 2.29 2.15 2.02 1.89 1.76 1.50 1.30 1.28 1.00 0.85 0.71 0.60 0.58 0.59 0.61 0.69
0.74 0.74 0.68 0.67 0.68 0.62 0.63 0.59 0.62 0.71 0.76 0.79 0.83 0.86 0.77 0.66 0.61 0.63 0.65 0.77 0.96 1.12 1.36 1.62 1.81 2.03 2.11 2.09 2.20 2.20 2.12 1.98 1.85 1.67 1.63 1.59 1.42 1.24 1.00 0.74 0.68 0.60 0.57
0.72 0.71 0.65 0.61 0.61 0.60 0.48 0.43 0.43 0.53 0.62 0.65 0.70 0.76 0.67 0.59 0.58 0.54 0.59 0.65 0.71 0.78 0.92 1.24 1.52 1.64 1.67 1.68 1.91 2.11 2.11 2.03 2.00 1.88 1.88 1.95 1.84 1.59 1.22 1.02 0.89 0.72 0.63
0.70 0.71 0.66 0.62 0.66 0.62 0.48 0.40 0.36 0.35 0.49 0.59 0.62 0.66 0.69 0.69 0.62 0.60 0.60 0.65 0.64 0.64 0.66 0.74 0.90 1.05 1.23 1.39 1.60 1.89 2.13 2.11 2.13 2.09 2.02 2.15 2.06 1.90 1.54 1.19 0.98 0.77 0.68
0.66 0.66 0.67 0.68 0.69 0.67 0.48 0.37 0.35 0.42 0.53 0.57 0.60 0.61 0.64 0.69 0.63 0.53 0.54 0.60 0.64 0.65 0.57 0.59 0.63 0.76 0.91 1.06 1.25 1.49 1.76 2.04 2.29 2.33 2.11 2.14 2.12 2.12 2.08 1.67 1.25 0.99 0.78
0.70 0.64 0.65 0.69 0.69 0.73 0.54 0.33 0.30 0.43 0.59 0.65 0.74 0.72 0.58 0.54 0.54 0.41 0.45 0.55 0.57 0.58 0.54 0.56 0.59 0.61 0.67 0.81 0.94 1.15 1.34 1.58 1.84 2.03 2.00 2.06 2.19 2.44 2.57 2.17 1.62 1.18 0.96

GEFSMA_prec_meanprecacc_168.txt.gz
Total_Precipitation_Accumulation
2.00 1.97 1.86 1.86 1.80 1.98 2.18 2.48 2.40 2.63 2.56 2.28 1.93 1.73 1.72 1.72 1.65 1.89 2.16 2.20 2.04 2.04 2.69 3.10 3.00 2.71 2.30 1.88 1.61 1.49 1.38 1.20 1.04 0.83 0.75 0.80 0.82 0.80 0.70 0.54 0.46 0.37 0.29
2.46 2.39 2.17 2.14 2.03 2.10 2.41 2.64 2.65 3.02 2.85 2.69 2.23 2.06 1.91 1.84 1.81 2.00 2.23 2.42 2.36 2.30 2.59 3.02 3.28 3.19 2.81 2.28 1.86 1.61 1.51 1.44 1.30 0.99 0.82 0.84 0.89 0.89 0.83 0.69 0.55 0.42 0.32
2.59 2.47 2.32 2.23 2.34 2.46 2.63 2.67 2.77 3.08 2.81 2.69 2.50 2.32 2.12 1.94 1.84 2.02 2.31 2.61 2.39 2.30 2.57 2.93 3.29 3.23 3.06 2.75 2.27 1.96 1.74 1.58 1.51 1.23 0.94 0.83 0.84 0.85 0.83 0.78 0.64 0.47 0.32
2.62 2.67 2.43 2.24 2.48 2.61 2.77 2.93 2.90 2.97 2.97 2.92 2.76 2.41 2.26 2.15 1.91 1.96 2.09 2.26 2.42 2.05 2.41 2.91 3.08 2.95 2.97 3.08 2.98 2.75 2.41 2.03 1.79 1.48 1.17 0.98 0.90 0.86 0.83 0.79 0.68 0.49 0.31
2.52 2.78 2.59 2.56 2.68 2.87 2.77 2.59 2.95 3.07 3.01 2.99 2.67 2.51 2.15 2.03 1.96 1.87 1.92 2.02 2.24 2.20 2.19 2.35 2.77 2.68 2.90 3.27 3.45 3.53 3.28 2.82 2.31 1.93 1.57 1.30 1.18 1.03 0.87 0.81 0.72 0.52 0.34
2.50 2.75 2.55 2.59 2.78 2.96 3.01 3.00 3.08 3.05 2.92 2.98 2.63 2.42 2.09 1.78 1.75 1.70 1.58 1.74 1.85 1.68 1.76 1.93 2.26 2.02 2.25 2.66 3.09 3.52 3.77 3.69 3.15 2.51 2.18 1.95 1.78 1.47 1.08 0.85 0.71 0.59 0.44
2.41 2.67 2.41 2.70 2.85 2.88 2.99 3.02 3.16 3.05 2.88 3.05 2.93 2.43 1.95 1.66 1.50 1.36 1.37 1.48 1.45 1.53 1.76 2.05 2.32 2.35 2.11 2.11 2.31 2.78 3.48 4.00 3.86 3.28 2.94 2.72 2.50 2.07 1.43 1.06 0.77 0.61 0.53
2.28 2.42 2.70 2.75 2.83 2.90 2.91 2.86 2.89 2.70 2.52 2.87 2.92 2.70 2.11 1.74 1.39 1.18 1.36 1.35 1.44 1.67 1.71 1.77 2.08 2.40 2.30 2.32 2.08 2.04 2.90 3.82 4.24 4.12 3.89 3.60 3.21 2.50 1.84 1.41 0.99 0.72 0.62
2.38 2.48 2.65 2.74 2.67 2.60 2.65 2.74 2.64 2.49 2.34 2.47 2.74 2.76 2.29 1.82 1.46 1.21 1.22 1.29 1.59 1.76 1.69 1.69 1.70 1.82 1.89 2.26 2.49 2.22 2.33 2.67 3.33 4.19 4.58 4.48 3.79 2.75 2.05 1.69 1.39 1.02 0.75
2.10 2.20 2.27 2.43 2.49 2.48 2.46 2.41 2.39 2.41 2.36 2.24 2.45 2.53 2.38 2.14 1.89 1.41 1.15 1.19 1.44 1.56 1.51 1.41 1.48 1.68 1.80 2.13 2.39 2.11 1.89 1.83 2.06 2.99 3.89 4.11 3.72 2.82 2.17 1.93 1.88 1.58 1.10
1.91 1.90 2.00 2.19 2.24 2.16 2.16 2.29 2.46 2.43 2.29 2.16 2.26 2.35 2.48 2.40 2.10 1.78 1.37 1.27 1.27 1.20 1.31 1.33 1.35 1.45 1.66 1.96 2.17 1.87 1.79 1.61 1.52 1.82 2.44 2.92 3.05 2.73 2.30 2.22 2.39 2.30 1.85
1.83 1.77 1.79 1.89 1.95 1.95 1.92 1.97 2.08 2.12 2.10 2.19 2.22 2.21 2.31 2.31 2.20 2.09 1.70 1.47 1.35 1.08 1.12 1.19 1.27 1.32 1.41 1.59 1.53 1.55 1.65 1.48 1.33 1.31 1.54 1.92 2.26 2.40 2.29 2.34 2.56 2.63 2.51
1.76 1.71 1.65 1.60 1.60 1.63 1.71 1.88 1.90 1.91 1.99 2.10 2.12 2.14 2.06 2.00 2.08 2.07 1.89 1.63 1.45 1.12 1.12 1.05 1.09 1.17 1.14 1.40 1.49 1.54 1.44 1.31 1.22 1.17 1.20 1.34 1.57 1.77 1.95 2.10 2.37 2.63 2.78
1.69 1.57 1.44 1.38 1.36 1.39 1.48 1.66 1.84 1.84 1.93 1.98 1.93 1.97 1.87 1.79 1.92 1.89 1.86 1.88 1.71 1.52 1.47 1.29 1.06 1.03 1.10 1.20 1.29 1.34 1.24 1.17 1.05 0.97 0.97 1.04 1.16 1.30 1.44 1.65 1.88 2.05 2.21
1.39 1.35 1.32 1.30 1.25 1.28 1.32 1.37 1.50 1.52 1.61 1.66 1.74 1.71 1.62 1.62 1.71 1.75 1.85 1.93 1.88 1.74 1.70 1.60 1.25 1.03 1.04 1.14 1.34 1.19 1.12 1.03 0.94 0.87 0.78 0.81 0.85 0.95 1.05 1.16 1.34 1.51 1.59
1.29 1.21 1.21 1.21 1.16 1.14 1.16 1.19 1.24 1.30 1.28 1.33 1.50 1.52 1.50 1.51 1.62 1.66 1.72 1.86 1.96 1.97 1.81 1.63 1.44 1.17 1.17 1.08 1.19 1.18 1.15 1.08 0.90 0.78 0.69 0.67 0.70 0.78 0.88 0.95 1.03 1.15 1.20
1.22 1.21 1.17 1.13 1.03 0.97 0.97 1.00 1.01 1.11 1.13 1.12 1.19 1.22 1.28 1.39 1.53 1.58 1.62 1.68 1.89 2.06 1.94 1.84 1.71 1.58 1.45 1.29 1.13 1.12 1.14 1.07 0.90 0.76 0.63 0.60 0.63 0.66 0.71 0.80 0.89 1.00 1.07
0.97 0.96 0.95 1.02 1.04 1.03 1.00 0.99 0.96 0.95 1.01 1.03 1.09 1.18 1.24 1.36 1.48 1.46 1.54 1.62 1.81 2.04 2.11 2.24 2.28 2.03 1.74 1.51 1.39 1.24 1.01 0.91 0.92 0.79 0.64 0.57 0.56 0.59 0.62 0.67 0.74 0.87 0.98
0.87 0.85 0.86 0.89 0.91 0.99 1.10 1.12 1.10 1.10 1.12 1.04 1.09 1.19 1.18 1.22 1.30 1.33 1.44 1.57 1.72 1.87 2.05 2.15 2.28 2.11 1.92 1.63 1.63 1.44 1.19 1.11 0.90 0.83 0.72 0.61 0.56 0.56 0.57 0.62 0.68 0.74 0.82
0.88 0.86 0.81 0.82 0.84 0.84 0.92 1.05 1.11 1.11 1.08 1.03 1.03 1.03 1.00 1.02 1.11 1.20 1.26 1.42 1.57 1.71 1.83 1.88 2.01 2.08 2.10 2.07 2.01 1.78 1.61 1.41 1.14 0.90 0.85 0.68 0.61 0.58 0.56 0.56 0.60 0.68 0.79
0.80 0.84 0.76 0.73 0.79 0.82 0.80 0.82 0.94 0.97 0.97 0.96 0.97 0.90 0.79 0.79 0.83 0.87 0.94 1.18 1.35 1.50 1.65 1.75 1.88 2.05 2.17 2.30 2.16 2.03 1.90 1.77 1.52 1.31 1.28 1.00 0.85 0.71 0.60 0.58 0.59 0.61 0.69
0.77 0.76 0.69 0.68 0.69 0.62 0.63 0.60 0.62 0.71 0.77 0.80 0.84 0.86 0.77 0.66 0.61 0.64 0.66 0.79 0.97 1.13 1.37 1.63 1.81 2.03 2.13 2.10 2.21 2.20 2.13 1.99 1.86 1.67 1.63 1.59 1.42 1.25 1.00 0.74 0.68 0.60 0.57
0.75 0.73 0.66 0.62 0.62 0.60 0.48 0.43 0.43 0.53 0.63 0.66 0.70 0.76 0.67 0.59 0.58 0.54 0.59 0.66 0.71 0.78 0.92 1.25 1.53 1.65 1.68 1.69 1.93 2.12 2.12 2.05 2.01 1.89 1.88 1.96 1.84 1.59 1.22 1.02 0.89 0.72 0.63
0.72 0.73 0.67 0.63 0.67 0.62 0.48 0.40 0.36 0.36 0.49 0.59 0.62 0.67 0.69 0.70 0.62 0.60 0.61 0.66 0.64 0.64 0.67 0.75 0.91 1.06 1.24 1.40 1.62 1.91 2.15 2.12 2.13 2.09 2.03 2.15 2.06 1.90 1.55 1.19 0.98 0.77 0.68
0.67 0.68 0.69 0.69 0.71 0.68 0.49 0.37 0.35 0.42 0.53 0.58 0.61 0.61 0.65 0.70 0.64 0.53 0.54 0.61 0.65 0.67 0.59 0.60 0.64 0.76 0.91 1.06 1.25 1.50 1.76 2.04 2.29 2.33 2.12 2.15 2.12 2.12 2.09 1.67 1.25 0.99 0.78
0.72 0.66 0.67 0.71 0.71 0.75 0.55 0.33 0.30 0.43 0.60 0.66 0.75 0.73 0.59 0.55 0.54 0.42 0.46 0.57 0.59 0.61 0.56 0.58 0.60 0.62 0.68 0.81 0.94 1.15 1.35 1.59 1.85 2.03 2.01 2.07 2.19 2.45 2.57 2.17 1.62 1.18 0.96

GEFSMA_prec_meanprecacc_174.txt.gz
Total_Precipitation_Accumulation
2.02 1.98 1.87 1.87 1.81 2.00 2.21 2.50 2.43 2.67 2.61 2.32 1.96 1.78 1.79 1.84 1.73 1.95 2.22 2.25 2.08 2.08 2.72 3.12 3.02 2.72 2.32 1.89 1.62 1.50 1.39 1.21 1.05 0.84 0.76 0.82 0.83 0.82 0.72 0.55 0.46 0.38 0.29
2.47 2.39 2.18 2.16 2.05 2.11 2.42 2.66 2.68 3.07 2.89 2.73 2.28 2.11 1.97 1.92 1.88 2.06 2.27 2.45 2.39 2.34 2.64 3.06 3.32 3.22 2.84 2.31 1.89 1.63 1.53 1.45 1.32 1.01 0.83 0.85 0.91 0.91 0.84 0.71 0.56 0.43 0.33
2.60 2.47 2.33 2.24 2.35 2.48 2.65 2.69 2.79 3.11 2.85 2.74 2.56 2.38 2.18 2.00 1.92 2.08 2.36 2.63 2.42 2.34 2.62 2.99 3.34 3.28 3.10 2.79 2.31 2.00 1.76 1.61 1.53 1.25 0.96 0.84 0.86 0.87 0.84 0.79 0.65 0.48 0.33
2.64 2.68 2.45 2.26 2.49 2.63 2.79 2.95 2.92 2.99 3.01 2.97 2.83 2.50 2.33 2.21 1.97 2.03 2.14 2.30 2.45 2.08 2.45 2.98 3.14 3.00 3.01 3.12 3.03 2.81 2.46 2.06 1.81 1.50 1.18 1.00 0.92 0.88 0.84 0.81 0.70 0.51 0.32
2.54 2.80 2.60 2.57 2.70 2.90 2.80 2.61 2.96 3.08 3.03 3.02 2.72 2.57 2.21 2.10 2.03 1.94 1.99 2.09 2.29 2.24 2.23 2.40 2.82 2.73 2.94 3.32 3.51 3.59 3.34 2.87 2.35 1.96 1.60 1.32 1.21 1.05 0.89 0.82 0.74 0.53 0.35
2.52 2.76 2.57 2.60 2.79 2.98 3.03 3.02 3.10 3.07 2.94 3.00 2.67 2.46 2.13 1.84 1.81 1.76 1.66 1.82 1.90 1.72 1.80 1.98 2.31 2.06 2.29 2.71 3.15 3.59 3.83 3.76 3.21 2.55 2.22 2.00 1.82 1.50 1.10 0.87 0.73 0.61 0.46
2.42 2.68 2.44 2.73 2.87 2.90 3.01 3.05 3.18 3.07 2.91 3.07 2.97 2.48 2.00 1.72 1.56 1.44 1.46 1.55 1.51 1.59 1.81 2.10 2.37 2.38 2.13 2.15 2.36 2.85 3.56 4.07 3.93 3.35 3.00 2.77 2.54 2.11 1.47 1.10 0.80 0.63 0.55
2.30 2.44 2.72 2.77 2.85 2.92 2.93 2.88 2.90 2.73 2.55 2.89 2.94 2.73 2.14 1.78 1.46 1.25 1.42 1.41 1.49 1.71 1.75 1.81 2.13 2.44 2.32 2.33 2.09 2.08 2.97 3.90 4.32 4.19 3.97 3.66 3.26 2.54 1.88 1.46 1.02 0.75 0.64
2.40 2.50 2.67 2.75 2.67 2.60 2.66 2.75 2.66 2.53 2.36 2.50 2.75 2.77 2.31 1.84 1.50 1.28 1.29 1.34 1.63 1.79 1.73 1.73 1.72 1.84 1.92 2.27 2.50 2.23 2.37 2.72 3.39 4.26 4.66 4.54 3.84 2.79 2.09 1.73 1.44 1.05 0.79
2.12 2.22 2.30 2.45 2.50 2.48 2.47 2.42 2.41 2.42 2.37 2.25 2.46 2.53 2.39 2.16 1.91 1.45 1.21 1.24 1.47 1.58 1.54 1.43 1.49 1.69 1.82 2.14 2.40 2.12 1.90 1.84 2.09 3.04 3.96 4.18 3.79 2.87 2.21 1.97 1.93 1.63 1.14
1.93 1.92 2.03 2.20 2.25 2.17 2.17 2.29 2.47 2.44 2.30 2.17 2.26 2.36 2.49 2.42 2.12 1.81 1.40 1.29 1.29 1.22 1.32 1.34 1.37 1.46 1.67 1.97 2.18 1.88 1.81 1.62 1.54 1.85 2.48 2.97 3.10 2.78 2.36 2.27 2.45 2.37 1.92
1.85 1.79 1.80 1.91 1.96 1.95 1.93 1.97 2.09 2.13 2.11 2.20 2.23 2.22 2.33 2.33 2.22 2.10 1.72 1.49 1.36 1.09 1.13 1.19 1.28 1.33 1.42 1.60 1.54 1.56 1.66 1.50 1.36 1.35 1.57 1.96 2.30 2.44 2.33 2.40 2.63 2.72 2.61
1.78 1.73 1.66 1.61 1.60 1.63 1.71 1.88 1.91 1.92 2.00 2.11 2.12 2.15 2.07 2.01 2.09 2.08 1.89 1.64 1.46 1.13 1.14 1.07 1.10 1.18 1.15 1.40 1.49 1.54 1.45 1.31 1.24 1.21 1.24 1.37 1.61 1.80 1.98 2.13 2.40 2.67 2.84
1.72 1.60 1.46 1.40 1.37 1.39 1.48 1.67 1.85 1.85 1.94 1.99 1.93 1.98 1.88 1.80 1.92 1.90 1.86 1.88 1.71 1.53 1.49 1.31 1.07 1.04 1.10 1.20 1.30 1.34 1.24 1.18 1.06 0.99 0.99 1.06 1.18 1.32 1.47 1.68 1.90 2.06 2.23
1.41 1.38 1.34 1.32 1.26 1.28 1.33 1.37 1.51 1.53 1.61 1.67 1.74 1.72 1.62 1.63 1.72 1.76 1.85 1.94 1.88 1.74 1.71 1.61 1.26 1.04 1.04 1.15 1.34 1.19 1.12 1.04 0.95 0.88 0.80 0.82 0.87 0.95 1.05 1.17 1.35 1.53 1.60
1.31 1.24 1.24 1.23 1.17 1.14 1.16 1.20 1.25 1.30 1.29 1.33 1.51 1.53 1.51 1.52 1.63 1.66 1.73 1.86 1.96 1.97 1.81 1.63 1.44 1.18 1.17 1.08 1.19 1.18 1.15 1.08 0.91 0.79 0.69 0.67 0.71 0.79 0.89 0.95 1.03 1.15 1.21
1.25 1.24 1.20 1.16 1.05 0.98 0.97 1.00 1.02 1.12 1.14 1.13 1.20 1.22 1.29 1.39 1.53 1.58 1.62 1.69 1.89 2.06 1.94 1.84 1.71 1.58 1.45 1.29 1.13 1.13 1.14 1.07 0.90 0.77 0.64 0.60 0.64 0.67 0.71 0.80 0.89 1.00 1.08
0.99 0.99 0.98 1.04 1.06 1.04 1.01 1.00 0.97 0.96 1.02 1.04 1.10 1.19 1.25 1.37 1.49 1.47 1.54 1.62 1.81 2.04 2.11 2.24 2.28 2.03 1.74 1.51 1.39 1.24 1.01 0.92 0.92 0.79 0.64 0.58 0.56 0.59 0.62 0.67 0.74 0.87 0.99
0.90 0.88 0.88 0.91 0.93 1.01 1.12 1.14 1.11 1.11 1.13 1.05 1.11 1.19 1.18 1.22 1.30 1.34 1.45 1.57 1.72 1.87 2.05 2.15 2.28 2.11 1.92 1.63 1.63 1.44 1.19 1.11 0.90 0.84 0.73 0.62 0.56 0.56 0.57 0.62 0.68 0.74 0.82
0.91 0.90 0.84 0.84 0.87 0.87 0.95 1.08 1.14 1.13 1.10 1.05 1.05 1.04 1.00 1.02 1.11 1.20 1.26 1.42 1.57 1.71 1.83 1.88 2.02 2.08 2.11 2.07 2.01 1.78 1.61 1.41 1.14 0.90 0.85 0.68 0.61 0.58 0.56 0.56 0.61 0.69 0.79
0.83 0.88 0.80 0.76 0.82 0.86 0.83 0.85 0.95 0.99 0.99 0.97 0.99 0.92 0.80 0.80 0.83 0.87 0.94 1.18 1.35 1.50 1.65 1.76 1.88 2.06 2.17 2.30 2.16 2.03 1.90 1.77 1.52 1.31 1.28 1.00 0.85 0.71 0.60 0.58 0.59 0.62 0.69
0.80 0.79 0.73 0.72 0.72 0.64 0.66 0.62 0.63 0.73 0.79 0.81 0.86 0.88 0.78 0.67 0.62 0.64 0.66 0.79 0.97 1.14 1.38 1.64 1.82 2.04 2.13 2.10 2.21 2.20 2.13 1.99 1.86 1.67 1.63 1.59 1.42 1.25 1.00 0.74 0.68 0.60 0.57
0.79 0.76 0.69 0.66 0.65 0.63 0.51 0.45 0.45 0.55 0.64 0.67 0.72 0.78 0.68 0.60 0.58 0.55 0.59 0.66 0.71 0.78 0.92 1.25 1.53 1.65 1.68 1.69 1.94 2.12 2.12 2.05 2.01 1.89 1.88 1.96 1.84 1.59 1.22 1.02 0.89 0.72 0.63
0.77 0.77 0.70 0.66 0.71 0.65 0.51 0.43 0.38 0.37 0.49 0.60 0.63 0.68 0.70 0.71 0.63 0.61 0.61 0.66 0.64 0.64 0.67 0.75 0.92 1.07 1.25 1.40 1.62 1.91 2.15 2.12 2.13 2.09 2.03 2.15 2.06 1.90 1.55 1.19 0.98 0.77 0.68
0.72 0.72 0.72 0.72 0.75 0.72 0.53 0.40 0.37 0.43 0.55 0.60 0.63 0.64 0.67 0.72 0.65 0.54 0.55 0.61 0.65 0.67 0.59 0.62 0.65 0.77 0.91 1.06 1.25 1.50 1.77 2.04 2.30 2.33 2.12 2.16 2.12 2.12 2.09 1.67 1.25 0.99 0.78
0.77 0.70 0.71 0.74 0.74 0.79 0.59 0.37 0.34 0.46 0.63 0.69 0.78 0.78 0.63 0.57 0.56 0.43 0.47 0.59 0.60 0.62 0.58 0.59 0.61 0.63 0.69 0.82 0.95 1.16 1.36 1.60 1.86 2.03 2.01 2.07 2.20 2.46 2.58 2.17 1.62 1.18 0.96

GEFSMA_prec_meanprecacc_180.txt.gz
Total_Precipitation_Accumulation
2.03 1.99 1.87 1.87 1.82 2.00 2.21 2.52 2.45 2.69 2.63 2.34 1.98 1.80 1.81 1.87 1.75 1.96 2.23 2.29 2.11 2.12 2.77 3.17 3.06 2.77 2.37 1.94 1.66 1.53 1.41 1.24 1.09 0.87 0.79 0.85 0.87 0.86 0.75 0.57 0.49 0.40 0.31
2.48 2.41 2.19 2.17 2.06 2.12 2.43 2.67 2.70 3.09 2.92 2.76 2.31 2.14 2.00 1.95 1.91 2.07 2.29 2.48 2.42 2.38 2.70 3.14 3.39 3.29 2.90 2.37 1.95 1.71 1.61 1.54 1.40 1.05 0.87 0.90 0.96 0.95 0.87 0.74 0.59 0.45 0.34
2.61 2.49 2.35 2.25 2.36 2.49 2.65 2.70 2.81 3.14 2.88 2.78 2.61 2.43 2.23 2.05 1.95 2.11 2.39 2.68 2.46 2.39 2.69 3.08 3.43 3.36 3.18 2.88 2.41 2.09 1.86 1.68 1.58 1.31 1.01 0.89 0.89 0.90 0.87 0.83 0.69 0.52 0.36
2.67 2.71 2.48 2.28 2.50 2.64 2.81 2.97 2.94 3.02 3.03 3.00 2.87 2.54 2.38 2.27 2.03 2.08 2.19 2.34 2.49 2.12 2.52 3.08 3.26 3.09 3.10 3.21 3.13 2.90 2.55 2.14 1.87 1.55 1.24 1.06 0.97 0.92 0.87 0.84 0.74 0.56 0.36
2.57 2.83 2.63 2.59 2.72 2.91 2.82 2.63 2.99 3.11 3.05 3.04 2.75 2.61 2.27 2.17 2.09 1.99 2.03 2.12 2.31 2.28 2.28 2.47 2.92 2.82 3.03 3.41 3.61 3.68 3.44 2.96 2.42 2.02 1.67 1.40 1.26 1.09 0.93 0.88 0.78 0.58 0.40
2.54 2.79 2.59 2.62 2.81 3.00 3.05 3.04 3.14 3.10 2.97 3.04 2.69 2.49 2.19 1.91 1.87 1.81 1.68 1.84 1.93 1.76 1.84 2.02 2.36 2.12 2.38 2.81 3.24 3.68 3.93 3.86 3.30 2.64 2.30 2.07 1.90 1.56 1.15 0.93 0.79 0.66 0.50
2.44 2.71 2.46 2.75 2.88 2.93 3.04 3.07 3.20 3.10 2.94 3.10 2.98 2.50 2.03 1.75 1.60 1.46 1.48 1.59 1.55 1.63 1.85 2.13 2.40 2.43 2.19 2.22 2.44 2.96 3.67 4.18 4.04 3.44 3.08 2.85 2.63 2.19 1.54 1.16 0.86 0.70 0.61
2.35 2.47 2.75 2.79 2.87 2.95 2.95 2.89 2.92 2.75 2.57 2.92 2.97 2.76 2.16 1.80 1.48 1.26 1.44 1.44 1.54 1.75 1.79 1.83 2.15 2.47 2.35 2.36 2.13 2.16 3.09 4.03 4.46 4.31 4.06 3.74 3.34 2.62 1.95 1.52 1.09 0.82 0.71
2.45 2.54 2.70 2.78 2.70 2.64 2.68 2.77 2.67 2.54 2.39 2.53 2.77 2.78 2.31 1.84 1.51 1.29 1.30 1.35 1.65 1.81 1.74 1.74 1.76 1.87 1.94 2.30 2.53 2.28 2.43 2.79 3.47 4.35 4.75 4.62 3.91 2.85 2.16 1.80 1.51 1.12 0.84
2.19 2.28 2.35 2.49 2.54 2.52 2.50 2.45 2.43 2.44 2.39 2.28 2.48 2.54 2.40 2.17 1.91 1.46 1.21 1.25 1.49 1.60 1.56 1.45 1.53 1.73 1.84 2.16 2.42 2.14 1.94 1.87 2.13 3.10 4.04 4.27 3.87 2.94 2.27 2.03 2.00 1.70 1.20
1.99 1.98 2.07 2.24 2.27 2.20 2.19 2.31 2.49 2.46 2.32 2.20 2.29 2.37 2.50 2.43 2.13 1.81 1.40 1.29 1.30 1.23 1.33 1.35 1.38 1.48 1.68 1.99 2.18 1.90 1.83 1.66 1.58 1.90 2.54 3.04 3.18 2.86 2.44 2.35 2.54 2.47 2.03
1.88 1.83 1.84 1.93 1.98 1.98 1.95 1.98 2.10 2.15 2.14 2.23 2.24 2.23 2.34 2.33 2.22 2.11 1.72 1.49 1.36 1.09 1.13 1.19 1.28 1.33 1.43 1.61 1.55 1.57 1.67 1.51 1.39 1.38 1.61 1.99 2.34 2.49 2.38 2.46 2.72 2.82 2.72
1.79 1.74 1.68 1.63 1.62 1.65 1.74 1.91 1.93 1.94 2.02 2.13 2.14 2.15 2.08 2.01 2.09 2.08 1.89 1.64 1.46 1.13 1.14 1.07 1.10 1.18 1.15 1.41 1.50 1.55 1.45 1.32 1.26 1.25 1.28 1.39 1.63 1.84 2.03 2.18 2.45 2.74 2.91
1.73 1.61 1.48 1.41 1.38 1.40 1.50 1.69 1.87 1.87 1.95 2.00 1.94 1.99 1.89 1.80 1.92 1.90 1.87 1.88 1.71 1.53 1.49 1.31 1.07 1.04 1.10 1.20 1.31 1.35 1.24 1.18 1.07 1.03 1.03 1.08 1.20 1.34 1.49 1.71 1.93 2.10 2.26
1.43 1.39 1.36 1.34 1.29 1.31 1.35 1.40 1.54 1.55 1.64 1.69 1.75 1.73 1.63 1.63 1.72 1.76 1.86 1.94 1.88 1.74 1.71 1.61 1.26 1.04 1.04 1.15 1.34 1.20 1.12 1.05 0.96 0.89 0.82 0.85 0.89 0.97 1.07 1.18 1.37 1.55 1.63
1.35 1.26 1.27 1.26 1.21 1.18 1.19 1.24 1.27 1.33 1.33 1.36 1.52 1.54 1.51 1.52 1.63 1.66 1.73 1.87 1.96 1.97 1.81 1.63 1.44 1.18 1.17 1.08 1.19 1.18 1.15 1.09 0.91 0.79 0.70 0.68 0.72 0.79 0.90 0.96 1.04 1.17 1.23
1.29 1.28 1.23 1.19 1.08 1.02 1.01 1.04 1.05 1.14 1.16 1.15 1.21 1.24 1.29 1.39 1.53 1.59 1.63 1.69 1.89 2.06 1.94 1.84 1.71 1.58 1.45 1.29 1.14 1.13 1.15 1.08 0.90 0.77 0.64 0.60 0.64 0.67 0.71 0.80 0.90 1.01 1.09
1.02 1.01 1.01 1.07 1.09 1.07 1.04 1.03 1.00 0.98 1.03 1.05 1.11 1.20 1.26 1.37 1.49 1.47 1.55 1.63 1.82 2.04 2.11 2.24 2.28 2.03 1.74 1.51 1.40 1.24 1.01 0.92 0.92 0.79 0.64 0.58 0.56 0.59 0.62 0.67 0.74 0.87 0.99
0.94 0.93 0.93 0.95 0.96 1.03 1.14 1.16 1.14 1.13 1.15 1.07 1.12 1.20 1.19 1.22 1.31 1.34 1.45 1.58 1.73 1.88 2.05 2.16 2.29 2.11 1.92 1.63 1.63 1.44 1.19 1.11 0.90 0.84 0.73 0.62 0.57 0.56 0.57 0.63 0.68 0.75 0.83
0.97 0.96 0.90 0.89 0.92 0.92 0.98 1.11 1.17 1.15 1.12 1.07 1.06 1.06 1.02 1.03 1.12 1.21 1.27 1.43 1.58 1.72 1.84 1.88 2.02 2.08 2.11 2.07 2.01 1.78 1.61 1.41 1.14 0.90 0.86 0.70 0.63 0.59 0.57 0.57 0.61 0.69 0.80
0.91 0.96 0.87 0.83 0.88 0.92 0.88 0.88 0.99 1.02 1.00 0.98 1.00 0.94 0.82 0.82 0.85 0.88 0.94 1.19 1.36 1.50 1.66 1.76 1.88 2.06 2.17 2.30 2.16 2.03 1.90 1.77 1.52 1.31 1.28 1.00 0.86 0.72 0.60 0.58 0.60 0.62 0.69
0.87 0.87 0.80 0.77 0.76 0.68 0.70 0.66 0.67 0.76 0.81 0.83 0.87 0.90 0.80 0.69 0.64 0.65 0.67 0.80 0.98 1.15 1.38 1.64 1.82 2.04 2.13 2.10 2.21 2.20 2.13 1.99 1.86 1.67 1.63 1.59 1.42 1.25 1.00 0.74 0.68 0.61 0.57
0.83 0.81 0.73 0.69 0.68 0.66 0.54 0.48 0.48 0.58 0.66 0.69 0.74 0.80 0.70 0.63 0.61 0.57 0.61 0.67 0.72 0.80 0.93 1.25 1.54 1.65 1.68 1.69 1.94 2.12 2.13 2.05 2.01 1.89 1.88 1.96 1.84 1.59 1.23 1.02 0.89 0.72 0.63
0.79 0.79 0.72 0.69 0.73 0.68 0.53 0.45 0.40 0.40 0.52 0.62 0.65 0.70 0.72 0.73 0.66 0.64 0.63 0.68 0.66 0.65 0.68 0.76 0.92 1.07 1.25 1.41 1.63 1.91 2.15 2.12 2.13 2.09 2.03 2.16 2.06 1.90 1.55 1.20 0.99 0.77 0.69
0.76 0.75 0.75 0.75 0.77 0.75 0.56 0.44 0.40 0.45 0.57 0.63 0.66 0.66 0.69 0.74 0.67 0.55 0.56 0.62 0.66 0.68 0.61 0.62 0.66 0.78 0.92 1.07 1.26 1.50 1.77 2.05 2.30 2.33 2.12 2.16 2.13 2.13 2.09 1.68 1.25 1.00 0.79
0.80 0.73 0.74 0.77 0.76 0.81 0.61 0.40 0.37 0.49 0.67 0.73 0.82 0.80 0.65 0.59 0.57 0.44 0.48 0.59 0.61 0.63 0.59 0.60 0.62 0.64 0.69 0.83 0.96 1.16 1.36 1.60 1.86 2.04 2.01 2.08 2.21 2.47 2.59 2.18 1.62 1.19 0.97

GEFSMA_prec_meanprecacc_186.txt.gz
Total_Precipitation_Accumulation
2.05 2.02 1.90 1.90 1.84 2.03 2.24 2.55 2.48 2.73 2.67 2.37 2.00 1.84 1.86 1.91 1.80 2.00 2.28 2.32 2.16 2.17 2.83 3.23 3.13 2.85 2.43 2.00 1.73 1.60 1.49 1.32 1.16 0.91 0.84 0.90 0.92 0.90 0.78 0.60 0.51 0.42 0.33
2.51 2.43 2.22 2.20 2.08 2.14 2.45 2.70 2.74 3.14 2.98 2.82 2.36 2.19 2.05 2.01 1.98 2.15 2.37 2.54 2.47 2.43 2.78 3.21 3.45 3.36 2.96 2.43 2.01 1.78 1.68 1.62 1.47 1.10 0.91 0.95 1.00 0.99 0.92 0.78 0.61 0.47 0.37
2.66 2.53 2.39 2.29 2.40 2.53 2.68 2.72 2.84 3.17 2.93 2.84 2.68 2.49 2.29 2.12 2.03 2.19 2.48 2.76 2.52 2.44 2.74 3.14 3.50 3.43 3.25 2.95 2.47 2.17 1.93 1.75 1.63 1.35 1.05 0.93 0.94 0.93 0.91 0.87 0.74 0.55 0.38
2.73 2.78 2.54 2.34 2.56 2.68 2.85 3.01 2.97 3.04 3.08 3.06 2.95 2.63 2.46 2.35 2.09 2.16 2.28 2.43 2.59 2.20 2.60 3.14 3.33 3.15 3.15 3.27 3.20 2.96 2.61 2.19 1.92 1.59 1.28 1.09 1.01 0.95 0.90 0.88 0.79 0.61 0.40
2.64 2.91 2.71 2.67 2.77 2.96 2.87 2.67 3.03 3.15 3.11 3.11 2.81 2.68 2.35 2.24 2.16 2.05 2.11 2.20 2.39 2.35 2.38 2.54 2.97 2.87 3.09 3.49 3.70 3.76 3.51 3.03 2.49 2.07 1.72 1.46 1.32 1.14 0.97 0.91 0.81 0.61 0.44
2.60 2.86 2.65 2.67 2.85 3.07 3.12 3.10 3.21 3.16 3.03 3.10 2.72 2.53 2.24 1.96 1.92 1.87 1.75 1.92 2.01 1.83 1.92 2.11 2.47 2.19 2.43 2.87 3.30 3.75 3.99 3.94 3.37 2.70 2.36 2.14 1.97 1.62 1.20 0.97 0.83 0.70 0.53
2.51 2.78 2.52 2.80 2.93 3.00 3.12 3.15 3.28 3.17 2.99 3.15 3.03 2.55 2.07 1.79 1.64 1.51 1.55 1.67 1.64 1.70 1.93 2.23 2.49 2.52 2.28 2.26 2.48 3.02 3.74 4.26 4.11 3.49 3.14 2.91 2.69 2.25 1.58 1.20 0.90 0.74 0.65
2.42 2.53 2.83 2.85 2.94 3.03 3.04 2.99 3.01 2.83 2.63 2.97 3.02 2.82 2.23 1.86 1.51 1.29 1.49 1.50 1.60 1.82 1.88 1.90 2.20 2.54 2.43 2.46 2.19 2.19 3.14 4.09 4.52 4.37 4.11 3.78 3.39 2.67 1.99 1.55 1.12 0.86 0.75
2.52 2.62 2.79 2.87 2.80 2.72 2.77 2.86 2.77 2.65 2.47 2.59 2.82 2.84 2.37 1.92 1.57 1.32 1.32 1.38 1.68 1.86 1.82 1.82 1.80 1.93 2.01 2.39 2.60 2.30 2.45 2.81 3.51 4.40 4.80 4.67 3.95 2.88 2.20 1.85 1.55 1.16 0.87
2.25 2.36 2.43 2.58 2.64 2.60 2.60 2.54 2.51 2.53 2.48 2.36 2.55 2.58 2.44 2.22 1.98 1.52 1.25 1.27 1.51 1.63 1.61 1.50 1.59 1.80 1.90 2.24 2.49 2.17 1.95 1.88 2.14 3.13 4.10 4.33 3.92 2.97 2.30 2.07 2.04 1.75 1.24
2.04 2.04 2.14 2.32 2.35 2.26 2.25 2.38 2.57 2.54 2.39 2.26 2.36 2.43 2.55 2.48 2.20 1.89 1.47 1.34 1.32 1.25 1.35 1.39 1.44 1.52 1.71 2.02 2.24 1.93 1.85 1.67 1.58 1.91 2.57 3.07 3.22 2.90 2.47 2.39 2.57 2.51 2.07
1.93 1.87 1.89 1.99 2.03 2.03 2.00 2.04 2.17 2.23 2.21 2.31 2.34 2.32 2.42 2.41 2.30 2.18 1.79 1.54 1.40 1.11 1.15 1.22 1.33 1.39 1.47 1.64 1.57 1.58 1.68 1.52 1.39 1.39 1.63 2.01 2.36 2.51 2.41 2.49 2.74 2.85 2.76
1.84 1.79 1.72 1.67 1.66 1.69 1.77 1.96 1.99 1.99 2.08 2.20 2.21 2.23 2.15 2.09 2.14 2.12 1.95 1.69 1.50 1.15 1.16 1.10 1.13 1.21 1.18 1.45 1.55 1.55 1.45 1.32 1.26 1.27 1.32 1.41 1.64 1.85 2.04 2.20 2.48 2.77 2.96
1.79 1.67 1.53 1.45 1.41 1.42 1.52 1.72 1.91 1.91 2.00 2.07 2.00 2.06 1.95 1.85 1.96 1.93 1.91 1.92 1.76 1.57 1.52 1.34 1.09 1.06 1.12 1.23 1.32 1.36 1.25 1.19 1.08 1.05 1.05 1.09 1.21 1.35 1.50 1.71 1.94 2.11 2.28
1.48 1.44 1.39 1.37 1.31 1.33 1.37 1.43 1.58 1.59 1.68 1.74 1.80 1.78 1.69 1.69 1.76 1.79 1.88 1.97 1.93 1.79 1.75 1.65 1.28 1.06 1.06 1.17 1.36 1.21 1.14 1.06 0.96 0.90 0.84 0.86 0.89 0.97 1.07 1.19 1.38 1.55 1.63
1.41 1.31 1.30 1.29 1.24 1.21 1.23 1.28 1.32 1.37 1.37 1.40 1.56 1.57 1.55 1.56 1.66 1.69 1.75 1.89 2.00 2.01 1.84 1.66 1.46 1.19 1.18 1.09 1.20 1.19 1.16 1.09 0.92 0.80 0.70 0.69 0.72 0.80 0.90 0.97 1.05 1.17 1.23
1.37 1.33 1.26 1.22 1.12 1.05 1.04 1.07 1.08 1.18 1.19 1.17 1.24 1.26 1.32 1.43 1.57 1.61 1.65 1.71 1.91 2.08 1.97 1.86 1.73 1.59 1.45 1.30 1.14 1.14 1.15 1.09 0.92 0.77 0.64 0.60 0.64 0.67 0.72 0.81 0.90 1.01 1.09
1.08 1.05 1.04 1.11 1.12 1.09 1.08 1.06 1.03 1.01 1.06 1.08 1.13 1.22 1.27 1.40 1.52 1.49 1.57 1.64 1.83 2.05 2.13 2.26 2.29 2.04 1.74 1.52 1.41 1.25 1.01 0.93 0.94 0.79 0.64 0.58 0.56 0.59 0.62 0.67 0.74 0.88 0.99
1.00 0.98 0.97 0.98 0.99 1.05 1.18 1.20 1.17 1.16 1.18 1.10 1.15 1.23 1.21 1.24 1.33 1.36 1.47 1.60 1.74 1.89 2.07 2.17 2.30 2.11 1.93 1.64 1.64 1.44 1.20 1.12 0.90 0.84 0.73 0.62 0.57 0.56 0.57 0.63 0.68 0.75 0.83
1.04 1.01 0.94 0.94 0.97 0.96 1.02 1.15 1.20 1.19 1.15 1.10 1.11 1.10 1.05 1.06 1.14 1.23 1.28 1.44 1.60 1.74 1.86 1.90 2.03 2.09 2.11 2.08 2.01 1.79 1.62 1.42 1.15 0.90 0.86 0.70 0.63 0.59 0.57 0.57 0.61 0.69 0.80
0.98 1.03 0.94 0.89 0.93 0.98 0.94 0.93 1.03 1.06 1.05 1.02 1.04 0.97 0.85 0.84 0.87 0.90 0.96 1.20 1.38 1.52 1.68 1.78 1.90 2.07 2.19 2.32 2.17 2.04 1.92 1.79 1.53 1.31 1.29 1.00 0.86 0.72 0.61 0.59 0.60 0.62 0.70
0.94 0.93 0.87 0.84 0.81 0.72 0.75 0.74 0.75 0.83 0.89 0.90 0.92 0.93 0.82 0.70 0.65 0.67 0.69 0.82 1.01 1.18 1.42 1.67 1.84 2.06 2.15 2.12 2.24 2.23 2.15 2.01 1.87 1.68 1.64 1.60 1.43 1.25 1.00 0.75 0.68 0.61 0.57
0.89 0.87 0.79 0.76 0.74 0.71 0.58 0.53 0.54 0.64 0.74 0.77 0.81 0.85 0.73 0.65 0.63 0.59 0.64 0.70 0.75 0.82 0.97 1.29 1.57 1.69 1.72 1.73 1.98 2.15 2.15 2.07 2.03 1.90 1.90 1.97 1.85 1.59 1.23 1.02 0.89 0.72 0.63
0.87 0.88 0.79 0.74 0.80 0.74 0.57 0.48 0.43 0.42 0.56 0.66 0.69 0.74 0.76 0.76 0.69 0.66 0.66 0.71 0.69 0.69 0.73 0.80 0.96 1.10 1.28 1.44 1.66 1.95 2.18 2.15 2.15 2.11 2.05 2.17 2.07 1.91 1.55 1.20 0.99 0.77 0.69
0.84 0.82 0.81 0.79 0.81 0.79 0.60 0.48 0.44 0.48 0.60 0.65 0.69 0.70 0.73 0.77 0.70 0.57 0.58 0.66 0.71 0.73 0.64 0.66 0.70 0.81 0.94 1.09 1.28 1.52 1.79 2.07 2.31 2.34 2.13 2.17 2.13 2.13 2.09 1.68 1.25 1.00 0.79
0.87 0.80 0.79 0.81 0.80 0.84 0.63 0.43 0.40 0.52 0.70 0.76 0.85 0.84 0.70 0.63 0.60 0.46 0.50 0.62 0.65 0.66 0.61 0.62 0.64 0.66 0.71 0.85 0.97 1.18 1.37 1.61 1.87 2.05 2.03 2.10 2.22 2.48 2.60 2.18 1.63 1.19 0.97